Wetterdaten: Freitag, 07.06.2019
Datum Zeit Temp. Aussen Temp. o. S. +5cm Feuchte Auss Luftdruck Regen Sonnenschein Regendauer Solar Windben Empfang
07.06.2019 00:00 14,2 C 12,8 C 11,7 C 80 % 1015,3 hPa 0,0 l/m 0 min 0 min 0 W/m 0,0 km/h (0 Bft) 97,87 %
07.06.2019 00:02 14,2 C 12,8 C 11,7 C 80 % 1015,3 hPa 0,0 l/m 0 min 0 min 0 W/m 0,0 km/h (0 Bft) 97,56 %
07.06.2019 00:04 14,2 C 12,8 C 11,7 C 80 % 1015,3 hPa 0,0 l/m 0 min 0 min 0 W/m 0,0 km/h (0 Bft) 100,00 %
07.06.2019 00:07 14,2 C 12,8 C 11,7 C 80 % 1015,3 hPa 0,0 l/m 0 min 0 min 0 W/m 0,0 km/h (0 Bft) 100,00 %
07.06.2019 00:08 14,2 C 12,8 C 11,7 C 80 % 1015,3 hPa 0,0 l/m 0 min 0 min 0 W/m 0,0 km/h (0 Bft) 100,00 %
07.06.2019 00:10 14,2 C 12,8 C 11,7 C 81 % 1015,3 hPa 0,0 l/m 0 min 0 min 0 W/m 0,0 km/h (0 Bft) 100,00 %
07.06.2019 00:12 14,1 C 12,8 C 11,7 C 80 % 1015,3 hPa 0,0 l/m 0 min 0 min 0 W/m 3,2 km/h (1 Bft) 100,00 %
07.06.2019 00:14 14,0 C 12,8 C 11,7 C 81 % 1015,3 hPa 0,0 l/m 0 min 0 min 0 W/m 6,4 km/h (2 Bft) 100,00 %
07.06.2019 00:16 14,0 C 12,8 C 11,7 C 81 % 1015,3 hPa 0,0 l/m 0 min 0 min 0 W/m 0,0 km/h (0 Bft) 100,00 %
07.06.2019 00:18 14,0 C 12,2 C 11,7 C 81 % 1015,3 hPa 0,0 l/m 0 min 0 min 0 W/m 3,2 km/h (1 Bft) 97,87 %
07.06.2019 00:20 13,9 C 12,2 C 11,7 C 81 % 1015,3 hPa 0,0 l/m 0 min 0 min 0 W/m 0,0 km/h (0 Bft) 100,00 %
07.06.2019 00:22 13,9 C 11,7 C 11,7 C 81 % 1015,3 hPa 0,0 l/m 0 min 0 min 0 W/m 0,0 km/h (0 Bft) 100,00 %
07.06.2019 00:24 13,9 C 11,7 C 11,1 C 81 % 1015,3 hPa 0,0 l/m 0 min 0 min 0 W/m 0,0 km/h (0 Bft) 97,87 %
07.06.2019 00:26 13,9 C 11,7 C 11,1 C 81 % 1015,2 hPa 0,0 l/m 0 min 0 min 0 W/m 0,0 km/h (0 Bft) 100,00 %
07.06.2019 00:28 13,8 C 11,7 C 11,1 C 81 % 1015,2 hPa 0,0 l/m 0 min 0 min 0 W/m 0,0 km/h (0 Bft) 100,00 %
07.06.2019 00:30 13,8 C 11,7 C 11,1 C 81 % 1015,2 hPa 0,0 l/m 0 min 0 min 0 W/m 3,2 km/h (1 Bft) 100,00 %
07.06.2019 00:32 13,8 C 11,7 C 11,1 C 81 % 1015,3 hPa 0,0 l/m 0 min 0 min 0 W/m 6,4 km/h (2 Bft) 100,00 %
07.06.2019 00:34 13,8 C 12,2 C 11,1 C 81 % 1015,3 hPa 0,0 l/m 0 min 0 min 0 W/m 3,2 km/h (1 Bft) 100,00 %
07.06.2019 00:36 13,7 C 12,2 C 11,1 C 82 % 1015,3 hPa 0,0 l/m 0 min 0 min 0 W/m 3,2 km/h (1 Bft) 100,00 %
07.06.2019 00:38 13,7 C 12,2 C 11,1 C 82 % 1015,3 hPa 0,0 l/m 0 min 0 min 0 W/m 6,4 km/h (2 Bft) 100,00 %
07.06.2019 00:40 13,7 C 12,2 C 11,7 C 82 % 1015,3 hPa 0,0 l/m 0 min 0 min 0 W/m 6,4 km/h (2 Bft) 100,00 %
07.06.2019 00:42 13,6 C 12,2 C 11,7 C 82 % 1015,3 hPa 0,0 l/m 0 min 0 min 0 W/m 6,4 km/h (2 Bft) 100,00 %
07.06.2019 00:44 13,6 C 12,8 C 11,7 C 82 % 1015,3 hPa 0,0 l/m 0 min 0 min 0 W/m 3,2 km/h (1 Bft) 100,00 %
07.06.2019 00:46 13,6 C 12,8 C 11,7 C 82 % 1015,2 hPa 0,0 l/m 0 min 0 min 0 W/m 3,2 km/h (1 Bft) 100,00 %
07.06.2019 00:48 13,5 C 12,8 C 11,7 C 82 % 1015,2 hPa 0,0 l/m 0 min 0 min 0 W/m 3,2 km/h (1 Bft) 100,00 %
07.06.2019 00:50 13,5 C 12,8 C 12,2 C 82 % 1015,3 hPa 0,0 l/m 0 min 0 min 0 W/m 6,4 km/h (2 Bft) 100,00 %
07.06.2019 00:52 13,4 C 12,8 C 12,2 C 82 % 1015,3 hPa 0,0 l/m 0 min 0 min 0 W/m 6,4 km/h (2 Bft) 100,00 %
07.06.2019 00:54 13,4 C 12,8 C 12,2 C 82 % 1015,3 hPa 0,0 l/m 0 min 0 min 0 W/m 6,4 km/h (2 Bft) 100,00 %
07.06.2019 00:56 13,4 C 12,2 C 12,2 C 82 % 1015,3 hPa 0,0 l/m 0 min 0 min 0 W/m 3,2 km/h (1 Bft) 100,00 %
07.06.2019 00:58 13,4 C 12,2 C 11,7 C 82 % 1015,3 hPa 0,0 l/m 0 min 0 min 0 W/m 3,2 km/h (1 Bft) 100,00 %
07.06.2019 01:00 13,4 C 12,2 C 11,7 C 83 % 1015,3 hPa 0,0 l/m 0 min 0 min 0 W/m 3,2 km/h (1 Bft) 100,00 %
07.06.2019 01:02 13,3 C 12,2 C 11,7 C 83 % 1015,3 hPa 0,0 l/m 0 min 0 min 0 W/m 3,2 km/h (1 Bft) 95,74 %
07.06.2019 01:04 13,3 C 11,7 C 11,7 C 83 % 1015,3 hPa 0,0 l/m 0 min 0 min 0 W/m 0,0 km/h (0 Bft) 97,87 %
07.06.2019 01:06 13,3 C 11,7 C 11,1 C 83 % 1015,3 hPa 0,0 l/m 0 min 0 min 0 W/m 0,0 km/h (0 Bft) 97,83 %
07.06.2019 01:08 13,3 C 11,1 C 11,1 C 83 % 1015,3 hPa 0,0 l/m 0 min 0 min 0 W/m 0,0 km/h (0 Bft) 97,87 %
07.06.2019 01:10 13,3 C 11,1 C 10,6 C 83 % 1015,3 hPa 0,0 l/m 0 min 0 min 0 W/m 3,2 km/h (1 Bft) 95,74 %
07.06.2019 01:12 13,3 C 11,1 C 10,6 C 83 % 1015,2 hPa 0,0 l/m 0 min 0 min 0 W/m 3,2 km/h (1 Bft) 95,74 %
07.06.2019 01:14 13,2 C 11,1 C 10,6 C 83 % 1015,2 hPa 0,0 l/m 0 min 0 min 0 W/m 0,0 km/h (0 Bft) 97,87 %
07.06.2019 01:16 13,2 C 11,1 C 10,6 C 83 % 1015,2 hPa 0,0 l/m 0 min 0 min 0 W/m 0,0 km/h (0 Bft) 97,87 %
07.06.2019 01:18 13,2 C 11,1 C 10,6 C 83 % 1015,2 hPa 0,0 l/m 0 min 0 min 0 W/m 3,2 km/h (1 Bft) 97,83 %
07.06.2019 01:20 13,2 C 11,1 C 11,1 C 83 % 1015,2 hPa 0,0 l/m 0 min 0 min 0 W/m 6,4 km/h (2 Bft) 95,74 %
07.06.2019 01:22 13,1 C 11,7 C 11,1 C 83 % 1015,3 hPa 0,0 l/m 0 min 0 min 0 W/m 9,7 km/h (2 Bft) 97,87 %
07.06.2019 01:24 13,1 C 11,7 C 11,1 C 83 % 1015,2 hPa 0,0 l/m 0 min 0 min 0 W/m 3,2 km/h (1 Bft) 95,74 %
07.06.2019 01:26 13,1 C 11,7 C 11,1 C 83 % 1015,2 hPa 0,0 l/m 0 min 0 min 0 W/m 6,4 km/h (2 Bft) 97,87 %
07.06.2019 01:28 13,0 C 12,2 C 11,7 C 83 % 1015,2 hPa 0,0 l/m 0 min 0 min 0 W/m 9,7 km/h (2 Bft) 93,62 %
07.06.2019 01:30 13,0 C 11,7 C 11,7 C 84 % 1015,2 hPa 0,0 l/m 0 min 0 min 0 W/m 3,2 km/h (1 Bft) 95,65 %
07.06.2019 01:32 12,9 C 11,7 C 11,7 C 84 % 1015,1 hPa 0,0 l/m 0 min 0 min 0 W/m 3,2 km/h (1 Bft) 95,74 %
07.06.2019 01:34 12,9 C 11,7 C 11,1 C 84 % 1015,1 hPa 0,0 l/m 0 min 0 min 0 W/m 3,2 km/h (1 Bft) 93,62 %
07.06.2019 01:36 12,9 C 11,7 C 11,1 C 84 % 1015,0 hPa 0,0 l/m 0 min 0 min 0 W/m 0,0 km/h (0 Bft) 95,74 %
07.06.2019 01:38 12,9 C 11,7 C 11,1 C 84 % 1015,0 hPa 0,0 l/m 0 min 0 min 0 W/m 3,2 km/h (1 Bft) 95,74 %
07.06.2019 01:40 12,9 C 11,1 C 10,6 C 84 % 1015,0 hPa 0,0 l/m 0 min 0 min 0 W/m 0,0 km/h (0 Bft) 93,62 %
07.06.2019 01:42 12,8 C 11,1 C 10,6 C 84 % 1014,9 hPa 0,0 l/m 0 min 0 min 0 W/m 0,0 km/h (0 Bft) 93,48 %
07.06.2019 01:44 12,8 C 11,1 C 10,6 C 84 % 1014,9 hPa 0,0 l/m 0 min 0 min 0 W/m 3,2 km/h (1 Bft) 93,62 %
07.06.2019 01:46 12,8 C 10,6 C 10,6 C 84 % 1014,9 hPa 0,0 l/m 0 min 0 min 0 W/m 0,0 km/h (0 Bft) 91,49 %
07.06.2019 01:48 12,8 C 10,6 C 10,6 C 84 % 1014,9 hPa 0,0 l/m 0 min 0 min 0 W/m 0,0 km/h (0 Bft) 93,62 %
07.06.2019 01:50 12,7 C 10,6 C 10,0 C 84 % 1014,9 hPa 0,0 l/m 0 min 0 min 0 W/m 0,0 km/h (0 Bft) 93,62 %
07.06.2019 01:52 12,7 C 10,6 C 10,0 C 84 % 1015,0 hPa 0,0 l/m 0 min 0 min 0 W/m 3,2 km/h (1 Bft) 93,62 %
07.06.2019 01:54 12,7 C 10,6 C 10,0 C 84 % 1014,9 hPa 0,0 l/m 0 min 0 min 0 W/m 3,2 km/h (1 Bft) 93,48 %
07.06.2019 01:56 12,7 C 10,6 C 10,0 C 84 % 1014,9 hPa 0,0 l/m 0 min 0 min 0 W/m 0,0 km/h (0 Bft) 91,49 %
07.06.2019 01:58 12,6 C 10,0 C 10,0 C 85 % 1014,9 hPa 0,0 l/m 0 min 0 min 0 W/m 0,0 km/h (0 Bft) 95,74 %
07.06.2019 02:00 12,6 C 10,0 C 10,0 C 85 % 1014,9 hPa 0,0 l/m 0 min 0 min 0 W/m 0,0 km/h (0 Bft) 93,62 %
07.06.2019 02:02 12,6 C 10,0 C 10,0 C 84 % 1014,8 hPa 0,0 l/m 0 min 0 min 0 W/m 0,0 km/h (0 Bft) 95,74 %
07.06.2019 02:04 12,5 C 10,0 C 10,0 C 84 % 1014,8 hPa 0,0 l/m 0 min 0 min 0 W/m 0,0 km/h (0 Bft) 93,62 %
07.06.2019 02:06 12,5 C 10,0 C 10,0 C 84 % 1014,8 hPa 0,0 l/m 0 min 0 min 0 W/m 0,0 km/h (0 Bft) 93,48 %
07.06.2019 02:08 12,4 C 10,0 C 10,0 C 84 % 1014,8 hPa 0,0 l/m 0 min 0 min 0 W/m 0,0 km/h (0 Bft) 95,74 %
07.06.2019 02:10 12,4 C 10,0 C 10,0 C 85 % 1014,7 hPa 0,0 l/m 0 min 0 min 0 W/m 0,0 km/h (0 Bft) 97,87 %
07.06.2019 02:12 12,4 C 10,0 C 10,0 C 85 % 1014,8 hPa 0,0 l/m 0 min 0 min 0 W/m 0,0 km/h (0 Bft) 97,87 %
07.06.2019 02:14 12,3 C 10,0 C 10,0 C 85 % 1014,7 hPa 0,0 l/m 0 min 0 min 0 W/m 0,0 km/h (0 Bft) 97,87 %
07.06.2019 02:16 12,3 C 10,0 C 10,0 C 85 % 1014,8 hPa 0,0 l/m 0 min 0 min 0 W/m 0,0 km/h (0 Bft) 97,83 %
07.06.2019 02:18 12,3 C 10,0 C 10,0 C 85 % 1014,8 hPa 0,0 l/m 0 min 0 min 0 W/m 0,0 km/h (0 Bft) 97,87 %
07.06.2019 02:20 12,2 C 10,0 C 9,4 C 85 % 1014,7 hPa 0,0 l/m 0 min 0 min 0 W/m 0,0 km/h (0 Bft) 93,62 %
07.06.2019 02:22 12,2 C 10,0 C 9,4 C 85 % 1014,7 hPa 0,0 l/m 0 min 0 min 0 W/m 0,0 km/h (0 Bft) 94,44 %
07.06.2019 02:24 12,2 C 9,4 C 9,4 C 85 % 1014,6 hPa 0,0 l/m 0 min 0 min 0 W/m 0,0 km/h (0 Bft) 97,87 %
07.06.2019 02:26 12,1 C 9,4 C 9,4 C 85 % 1014,6 hPa 0,0 l/m 0 min 0 min 0 W/m 0,0 km/h (0 Bft) 97,83 %
07.06.2019 02:28 12,1 C 9,4 C 9,4 C 85 % 1014,6 hPa 0,0 l/m 0 min 0 min 0 W/m 0,0 km/h (0 Bft) 97,87 %
07.06.2019 02:30 12,1 C 9,4 C 9,4 C 85 % 1014,5 hPa 0,0 l/m 0 min 0 min 0 W/m 0,0 km/h (0 Bft) 97,87 %
07.06.2019 02:32 12,0 C 9,4 C 9,4 C 85 % 1014,5 hPa 0,0 l/m 0 min 0 min 0 W/m 3,2 km/h (1 Bft) 97,87 %
07.06.2019 02:34 12,0 C 9,4 C 9,4 C 86 % 1014,5 hPa 0,0 l/m 0 min 0 min 0 W/m 0,0 km/h (0 Bft) 97,87 %
07.06.2019 02:36 11,9 C 9,4 C 9,4 C 86 % 1014,4 hPa 0,0 l/m 0 min 0 min 0 W/m 0,0 km/h (0 Bft) 98,28 %
07.06.2019 02:38 11,9 C 9,4 C 9,4 C 86 % 1014,5 hPa 0,0 l/m 0 min 0 min 0 W/m 0,0 km/h (0 Bft) 97,14 %
07.06.2019 02:40 11,9 C 9,4 C 9,4 C 86 % 1014,5 hPa 0,0 l/m 0 min 0 min 0 W/m 3,2 km/h (1 Bft) 97,87 %
07.06.2019 02:42 11,8 C 10,0 C 9,4 C 86 % 1014,6 hPa 0,0 l/m 0 min 0 min 0 W/m 3,2 km/h (1 Bft) 97,87 %
07.06.2019 02:44 11,8 C 10,0 C 9,4 C 87 % 1014,7 hPa 0,0 l/m 0 min 0 min 0 W/m 3,2 km/h (1 Bft) 97,87 %
07.06.2019 02:46 11,8 C 10,0 C 9,4 C 87 % 1014,8 hPa 0,0 l/m 0 min 0 min 0 W/m 3,2 km/h (1 Bft) 97,87 %
07.06.2019 02:48 11,7 C 10,6 C 10,0 C 87 % 1014,8 hPa 0,0 l/m 0 min 0 min 0 W/m 6,4 km/h (2 Bft) 97,87 %
07.06.2019 02:50 11,7 C 10,6 C 10,0 C 88 % 1014,7 hPa 0,0 l/m 0 min 0 min 0 W/m 6,4 km/h (2 Bft) 95,65 %
07.06.2019 02:52 11,7 C 10,6 C 10,0 C 88 % 1014,8 hPa 0,0 l/m 0 min 0 min 0 W/m 3,2 km/h (1 Bft) 97,87 %
07.06.2019 02:54 11,7 C 10,6 C 10,0 C 88 % 1014,7 hPa 0,0 l/m 0 min 0 min 0 W/m 3,2 km/h (1 Bft) 100,00 %
07.06.2019 02:56 11,7 C 10,6 C 10,0 C 89 % 1014,6 hPa 0,0 l/m 0 min 0 min 0 W/m 3,2 km/h (1 Bft) 97,87 %
07.06.2019 02:58 11,7 C 10,0 C 10,0 C 89 % 1014,6 hPa 0,0 l/m 0 min 0 min 0 W/m 3,2 km/h (1 Bft) 100,00 %
07.06.2019 03:00 11,6 C 10,0 C 10,0 C 89 % 1014,6 hPa 0,0 l/m 0 min 0 min 0 W/m 3,2 km/h (1 Bft) 100,00 %
07.06.2019 03:02 11,6 C 10,0 C 10,0 C 89 % 1014,7 hPa 0,0 l/m 0 min 0 min 0 W/m 0,0 km/h (0 Bft) 100,00 %
07.06.2019 03:04 11,6 C 10,6 C 10,0 C 89 % 1014,6 hPa 0,0 l/m 0 min 0 min 0 W/m 6,4 km/h (2 Bft) 97,87 %
07.06.2019 03:06 11,6 C 10,6 C 10,0 C 89 % 1014,6 hPa 0,0 l/m 0 min 0 min 0 W/m 3,2 km/h (1 Bft) 97,87 %
07.06.2019 03:08 11,6 C 10,0 C 10,0 C 89 % 1014,6 hPa 0,0 l/m 0 min 0 min 0 W/m 0,0 km/h (0 Bft) 100,00 %
07.06.2019 03:10 11,6 C 10,0 C 10,0 C 90 % 1014,6 hPa 0,0 l/m 0 min 0 min 0 W/m 0,0 km/h (0 Bft) 100,00 %
07.06.2019 03:12 11,5 C 10,0 C 10,0 C 90 % 1014,5 hPa 0,0 l/m 0 min 0 min 0 W/m 0,0 km/h (0 Bft) 100,00 %
07.06.2019 03:14 11,5 C 10,0 C 10,0 C 90 % 1014,5 hPa 0,0 l/m 0 min 0 min 0 W/m 3,2 km/h (1 Bft) 97,83 %
07.06.2019 03:16 11,5 C 10,0 C 10,0 C 90 % 1014,5 hPa 0,0 l/m 0 min 0 min 0 W/m 3,2 km/h (1 Bft) 100,00 %
07.06.2019 03:18 11,5 C 10,0 C 10,0 C 90 % 1014,5 hPa 0,0 l/m 0 min 0 min 0 W/m 3,2 km/h (1 Bft) 100,00 %
07.06.2019 03:20 11,4 C 10,0 C 10,0 C 90 % 1014,6 hPa 0,0 l/m 0 min 0 min 0 W/m 0,0 km/h (0 Bft) 100,00 %
07.06.2019 03:22 11,4 C 10,6 C 10,0 C 90 % 1014,5 hPa 0,0 l/m 0 min 0 min 0 W/m 3,2 km/h (1 Bft) 100,00 %
07.06.2019 03:24 11,4 C 10,6 C 10,0 C 90 % 1014,5 hPa 0,0 l/m 0 min 0 min 0 W/m 3,2 km/h (1 Bft) 100,00 %
07.06.2019 03:26 11,4 C 10,6 C 10,0 C 90 % 1014,6 hPa 0,0 l/m 0 min 0 min 0 W/m 3,2 km/h (1 Bft) 97,87 %
07.06.2019 03:28 11,4 C 10,6 C 10,0 C 90 % 1014,7 hPa 0,0 l/m 0 min 0 min 0 W/m 3,2 km/h (1 Bft) 100,00 %
07.06.2019 03:30 11,4 C 10,6 C 10,6 C 90 % 1014,6 hPa 0,0 l/m 0 min 0 min 0 W/m 6,4 km/h (2 Bft) 95,74 %
07.06.2019 03:32 11,4 C 10,6 C 10,6 C 91 % 1014,8 hPa 0,0 l/m 0 min 0 min 0 W/m 3,2 km/h (1 Bft) 97,87 %
07.06.2019 03:34 11,4 C 11,1 C 10,6 C 91 % 1014,7 hPa 0,0 l/m 0 min 0 min 0 W/m 3,2 km/h (1 Bft) 100,00 %
07.06.2019 03:36 11,4 C 11,1 C 10,6 C 91 % 1014,8 hPa 0,0 l/m 0 min 0 min 0 W/m 3,2 km/h (1 Bft) 98,28 %
07.06.2019 03:38 11,4 C 11,1 C 10,6 C 91 % 1014,7 hPa 0,0 l/m 0 min 0 min 0 W/m 6,4 km/h (2 Bft) 97,14 %
07.06.2019 03:40 11,4 C 11,1 C 10,6 C 91 % 1014,7 hPa 0,0 l/m 0 min 0 min 0 W/m 6,4 km/h (2 Bft) 97,87 %
07.06.2019 03:42 11,4 C 11,1 C 10,6 C 91 % 1014,7 hPa 0,0 l/m 0 min 0 min 0 W/m 6,4 km/h (2 Bft) 97,87 %
07.06.2019 03:44 11,4 C 11,1 C 10,6 C 91 % 1014,7 hPa 0,0 l/m 0 min 0 min 0 W/m 3,2 km/h (1 Bft) 97,87 %
07.06.2019 03:46 11,4 C 11,1 C 10,6 C 91 % 1014,7 hPa 0,0 l/m 0 min 0 min 0 W/m 9,7 km/h (2 Bft) 97,87 %
07.06.2019 03:48 11,4 C 11,1 C 10,6 C 91 % 1014,7 hPa 0,0 l/m 0 min 0 min 0 W/m 6,4 km/h (2 Bft) 97,83 %
07.06.2019 03:50 11,4 C 11,1 C 10,6 C 92 % 1014,7 hPa 0,0 l/m 0 min 0 min 0 W/m 6,4 km/h (2 Bft) 97,87 %
07.06.2019 03:52 11,4 C 11,1 C 10,6 C 91 % 1014,7 hPa 0,0 l/m 0 min 0 min 0 W/m 3,2 km/h (1 Bft) 97,87 %
07.06.2019 03:54 11,4 C 11,1 C 10,6 C 92 % 1014,7 hPa 0,0 l/m 0 min 0 min 0 W/m 6,4 km/h (2 Bft) 97,87 %
07.06.2019 03:56 11,4 C 11,1 C 10,6 C 92 % 1014,6 hPa 0,0 l/m 0 min 0 min 0 W/m 3,2 km/h (1 Bft) 93,62 %
07.06.2019 03:58 11,4 C 10,6 C 10,6 C 92 % 1014,6 hPa 0,0 l/m 0 min 0 min 0 W/m 6,4 km/h (2 Bft) 95,74 %
07.06.2019 04:00 11,4 C 10,6 C 10,6 C 92 % 1014,5 hPa 0,0 l/m 0 min 0 min 0 W/m 6,4 km/h (2 Bft) 97,83 %
07.06.2019 04:02 11,4 C 10,6 C 10,6 C 92 % 1014,5 hPa 0,0 l/m 0 min 0 min 0 W/m 9,7 km/h (2 Bft) 100,00 %
07.06.2019 04:04 11,4 C 10,6 C 10,6 C 92 % 1014,5 hPa 0,0 l/m 0 min 0 min 0 W/m 6,4 km/h (2 Bft) 97,87 %
07.06.2019 04:06 11,4 C 10,6 C 10,6 C 92 % 1014,6 hPa 0,0 l/m 0 min 0 min 0 W/m 6,4 km/h (2 Bft) 97,87 %
07.06.2019 04:08 11,4 C 10,6 C 10,6 C 92 % 1014,5 hPa 0,0 l/m 0 min 0 min 0 W/m 3,2 km/h (1 Bft) 97,87 %
07.06.2019 04:10 11,4 C 10,6 C 10,6 C 92 % 1014,4 hPa 0,0 l/m 0 min 0 min 0 W/m 12,9 km/h (3 Bft) 95,74 %
07.06.2019 04:12 11,4 C 10,6 C 10,6 C 92 % 1014,4 hPa 0,0 l/m 0 min 0 min 0 W/m 6,4 km/h (2 Bft) 95,65 %
07.06.2019 04:14 11,4 C 10,6 C 10,6 C 92 % 1014,4 hPa 0,0 l/m 0 min 0 min 0 W/m 9,7 km/h (2 Bft) 95,74 %
07.06.2019 04:16 11,4 C 10,6 C 10,6 C 92 % 1014,3 hPa 0,0 l/m 0 min 0 min 0 W/m 3,2 km/h (1 Bft) 95,74 %
07.06.2019 04:18 11,4 C 10,6 C 10,6 C 92 % 1014,4 hPa 0,0 l/m 0 min 0 min 0 W/m 6,4 km/h (2 Bft) 95,74 %
07.06.2019 04:20 11,4 C 10,6 C 10,6 C 92 % 1014,3 hPa 0,0 l/m 0 min 0 min 0 W/m 6,4 km/h (2 Bft) 95,74 %
07.06.2019 04:22 11,4 C 10,6 C 10,6 C 92 % 1014,3 hPa 0,0 l/m 0 min 0 min 0 W/m 6,4 km/h (2 Bft) 95,74 %
07.06.2019 04:24 11,4 C 10,6 C 10,6 C 92 % 1014,3 hPa 0,0 l/m 0 min 0 min 0 W/m 6,4 km/h (2 Bft) 97,83 %
07.06.2019 04:26 11,4 C 10,6 C 10,6 C 92 % 1014,3 hPa 0,0 l/m 0 min 0 min 0 W/m 6,4 km/h (2 Bft) 97,87 %
07.06.2019 04:28 11,4 C 10,6 C 10,0 C 92 % 1014,3 hPa 0,0 l/m 0 min 0 min 0 W/m 6,4 km/h (2 Bft) 97,87 %
07.06.2019 04:30 11,4 C 10,6 C 10,0 C 92 % 1014,3 hPa 0,0 l/m 0 min 0 min 0 W/m 6,4 km/h (2 Bft) 97,87 %
07.06.2019 04:32 11,4 C 10,6 C 10,6 C 92 % 1014,2 hPa 0,0 l/m 0 min 0 min 0 W/m 9,7 km/h (2 Bft) 97,87 %
07.06.2019 04:34 11,4 C 10,6 C 10,6 C 92 % 1014,2 hPa 0,0 l/m 0 min 0 min 0 W/m 12,9 km/h (3 Bft) 97,87 %
07.06.2019 04:36 11,4 C 10,6 C 10,6 C 92 % 1014,2 hPa 0,0 l/m 0 min 0 min 0 W/m 12,9 km/h (3 Bft) 97,83 %
07.06.2019 04:38 11,3 C 10,6 C 10,6 C 92 % 1014,2 hPa 0,0 l/m 0 min 0 min 0 W/m 6,4 km/h (2 Bft) 97,87 %
07.06.2019 04:40 11,4 C 10,6 C 10,0 C 92 % 1014,2 hPa 0,0 l/m 0 min 0 min 0 W/m 6,4 km/h (2 Bft) 97,87 %
07.06.2019 04:42 11,4 C 10,6 C 10,0 C 92 % 1014,2 hPa 0,0 l/m 0 min 0 min 0 W/m 6,4 km/h (2 Bft) 95,74 %
07.06.2019 04:44 11,4 C 10,6 C 10,0 C 92 % 1014,1 hPa 0,0 l/m 0 min 0 min 0 W/m 3,2 km/h (1 Bft) 95,74 %
07.06.2019 04:46 11,3 C 10,6 C 10,0 C 92 % 1014,1 hPa 0,0 l/m 0 min 0 min 0 W/m 3,2 km/h (1 Bft) 93,48 %
07.06.2019 04:48 11,3 C 10,0 C 10,0 C 92 % 1014,1 hPa 0,0 l/m 0 min 0 min 0 W/m 3,2 km/h (1 Bft) 100,00 %
07.06.2019 04:50 11,3 C 10,0 C 10,0 C 92 % 1014,2 hPa 0,0 l/m 0 min 0 min 0 W/m 3,2 km/h (1 Bft) 97,87 %
07.06.2019 04:52 11,3 C 10,0 C 10,0 C 92 % 1014,2 hPa 0,0 l/m 0 min 0 min 0 W/m 0,0 km/h (0 Bft) 97,87 %
07.06.2019 04:54 11,3 C 10,0 C 10,0 C 92 % 1014,1 hPa 0,0 l/m 0 min 0 min 0 W/m 3,2 km/h (1 Bft) 97,87 %
07.06.2019 04:56 11,3 C 10,0 C 10,0 C 92 % 1014,1 hPa 0,0 l/m 0 min 0 min 0 W/m 3,2 km/h (1 Bft) 97,87 %
07.06.2019 04:58 11,3 C 10,0 C 10,0 C 92 % 1014,0 hPa 0,0 l/m 0 min 0 min 0 W/m 3,2 km/h (1 Bft) 97,83 %
07.06.2019 05:00 11,3 C 10,0 C 10,0 C 91 % 1014,0 hPa 0,0 l/m 0 min 0 min 0 W/m 3,2 km/h (1 Bft) 100,00 %
07.06.2019 05:02 11,3 C 10,0 C 10,0 C 91 % 1014,0 hPa 0,0 l/m 0 min 0 min 0 W/m 3,2 km/h (1 Bft) 100,00 %
07.06.2019 05:04 11,3 C 10,0 C 10,0 C 91 % 1013,9 hPa 0,0 l/m 0 min 0 min 0 W/m 0,0 km/h (0 Bft) 100,00 %
07.06.2019 05:05 11,3 C 10,0 C 10,0 C 91 % 1013,9 hPa 0,0 l/m 0 min 0 min 0 W/m 3,2 km/h (1 Bft) 100,00 %
07.06.2019 05:10 11,2 C 9,4 C 9,4 C 91 % 1013,9 hPa 0,0 l/m 0 min 0 min 0 W/m 0,0 km/h (0 Bft) 100,00 %
07.06.2019 05:12 11,2 C 9,4 C 9,4 C 91 % 1013,8 hPa 0,0 l/m 0 min 0 min 0 W/m 0,0 km/h (0 Bft) 100,00 %
07.06.2019 05:14 11,2 C 9,4 C 9,4 C 91 % 1013,7 hPa 0,0 l/m 0 min 0 min 0 W/m 0,0 km/h (0 Bft) 100,00 %
07.06.2019 05:16 11,2 C 9,4 C 9,4 C 91 % 1013,8 hPa 0,0 l/m 0 min 0 min 0 W/m 0,0 km/h (0 Bft) 90,91 %
07.06.2019 05:18 11,2 C 9,4 C 9,4 C 91 % 1013,7 hPa 0,0 l/m 0 min 0 min 0 W/m 0,0 km/h (0 Bft) 98,00 %
07.06.2019 05:20 11,1 C 9,4 C 9,4 C 91 % 1013,7 hPa 0,0 l/m 0 min 0 min 0 W/m 0,0 km/h (0 Bft) 97,92 %
07.06.2019 05:22 11,1 C 8,9 C 8,9 C 91 % 1013,7 hPa 0,0 l/m 0 min 0 min 0 W/m 0,0 km/h (0 Bft) 97,30 %
07.06.2019 05:24 11,1 C 8,9 C 8,9 C 91 % 1013,7 hPa 0,0 l/m 0 min 0 min 0 W/m 0,0 km/h (0 Bft) 100,00 %
07.06.2019 05:26 11,1 C 8,9 C 8,9 C 91 % 1013,7 hPa 0,0 l/m 0 min 0 min 0 W/m 0,0 km/h (0 Bft) 100,00 %
07.06.2019 05:28 11,0 C 8,9 C 8,9 C 91 % 1013,7 hPa 0,0 l/m 0 min 0 min 4 W/m 0,0 km/h (0 Bft) 98,00 %
07.06.2019 05:30 11,0 C 8,9 C 8,9 C 91 % 1013,7 hPa 0,0 l/m 0 min 0 min 5 W/m 0,0 km/h (0 Bft) 97,37 %
07.06.2019 05:32 10,9 C 8,9 C 8,9 C 91 % 1013,7 hPa 0,0 l/m 0 min 0 min 5 W/m 0,0 km/h (0 Bft) 100,00 %
07.06.2019 05:34 10,9 C 8,9 C 8,9 C 91 % 1013,7 hPa 0,0 l/m 0 min 0 min 5 W/m 0,0 km/h (0 Bft) 97,87 %
07.06.2019 05:36 10,9 C 8,9 C 8,9 C 91 % 1013,6 hPa 0,0 l/m 0 min 0 min 7 W/m 0,0 km/h (0 Bft) 100,00 %
07.06.2019 05:38 10,8 C 8,9 C 8,9 C 91 % 1013,6 hPa 0,0 l/m 0 min 0 min 7 W/m 0,0 km/h (0 Bft) 100,00 %
07.06.2019 05:40 10,8 C 8,9 C 8,9 C 91 % 1013,7 hPa 0,0 l/m 0 min 0 min 7 W/m 0,0 km/h (0 Bft) 100,00 %
07.06.2019 05:42 10,8 C 8,9 C 8,9 C 91 % 1013,6 hPa 0,0 l/m 0 min 0 min 9 W/m 0,0 km/h (0 Bft) 97,96 %
07.06.2019 05:44 10,8 C 8,9 C 8,9 C 91 % 1013,7 hPa 0,0 l/m 0 min 0 min 9 W/m 0,0 km/h (0 Bft) 97,87 %
07.06.2019 05:46 10,7 C 9,4 C 8,9 C 91 % 1013,6 hPa 0,0 l/m 0 min 0 min 11 W/m 3,2 km/h (1 Bft) 97,87 %
07.06.2019 05:48 10,7 C 9,4 C 8,9 C 91 % 1013,6 hPa 0,0 l/m 0 min 0 min 12 W/m 3,2 km/h (1 Bft) 97,30 %
07.06.2019 05:50 10,7 C 9,4 C 9,4 C 91 % 1013,6 hPa 0,0 l/m 0 min 0 min 13 W/m 3,2 km/h (1 Bft) 93,88 %
07.06.2019 05:52 10,7 C 10,0 C 9,4 C 92 % 1013,6 hPa 0,0 l/m 0 min 0 min 14 W/m 3,2 km/h (1 Bft) 96,36 %
07.06.2019 05:54 10,7 C 10,0 C 9,4 C 92 % 1013,6 hPa 0,0 l/m 0 min 0 min 16 W/m 3,2 km/h (1 Bft) 98,00 %
07.06.2019 05:56 10,7 C 10,0 C 9,4 C 92 % 1013,6 hPa 0,0 l/m 0 min 0 min 16 W/m 3,2 km/h (1 Bft) 94,29 %
07.06.2019 05:58 10,6 C 10,0 C 9,4 C 92 % 1013,6 hPa 0,0 l/m 0 min 0 min 16 W/m 3,2 km/h (1 Bft) 95,74 %
07.06.2019 06:00 10,6 C 10,0 C 9,4 C 92 % 1013,5 hPa 0,0 l/m 0 min 0 min 15 W/m 3,2 km/h (1 Bft) 96,36 %
07.06.2019 06:02 10,7 C 10,0 C 9,4 C 92 % 1013,5 hPa 0,0 l/m 0 min 0 min 16 W/m 6,4 km/h (2 Bft) 98,00 %
07.06.2019 06:04 10,7 C 10,6 C 10,0 C 92 % 1013,4 hPa 0,0 l/m 0 min 0 min 16 W/m 9,7 km/h (2 Bft) 95,74 %
07.06.2019 06:07 10,7 C 10,6 C 10,0 C 92 % 1013,5 hPa 0,0 l/m 0 min 0 min 18 W/m 9,7 km/h (2 Bft) 95,77 %
07.06.2019 06:08 10,7 C 10,6 C 10,0 C 92 % 1013,5 hPa 0,0 l/m 0 min 0 min 18 W/m 6,4 km/h (2 Bft) 100,00 %
07.06.2019 06:10 10,7 C 10,6 C 10,0 C 92 % 1013,4 hPa 0,0 l/m 0 min 0 min 19 W/m 6,4 km/h (2 Bft) 95,74 %
07.06.2019 06:12 10,7 C 10,6 C 10,0 C 92 % 1013,3 hPa 0,0 l/m 0 min 0 min 20 W/m 6,4 km/h (2 Bft) 93,62 %
07.06.2019 06:14 10,7 C 10,6 C 10,0 C 93 % 1013,4 hPa 0,0 l/m 0 min 0 min 21 W/m 16,1 km/h (3 Bft) 95,74 %
07.06.2019 06:16 10,7 C 10,6 C 10,0 C 93 % 1013,5 hPa 0,0 l/m 0 min 0 min 24 W/m 9,7 km/h (2 Bft) 93,62 %
07.06.2019 06:18 10,8 C 11,1 C 10,6 C 93 % 1013,4 hPa 0,0 l/m 0 min 0 min 25 W/m 22,5 km/h (4 Bft) 95,74 %
07.06.2019 06:20 10,8 C 11,1 C 10,6 C 93 % 1013,5 hPa 0,0 l/m 0 min 0 min 26 W/m 16,1 km/h (3 Bft) 95,65 %
07.06.2019 06:22 10,8 C 11,1 C 10,6 C 93 % 1013,4 hPa 0,0 l/m 0 min 0 min 28 W/m 16,1 km/h (3 Bft) 95,74 %
07.06.2019 06:24 10,9 C 11,1 C 10,6 C 93 % 1013,4 hPa 0,0 l/m 0 min 0 min 30 W/m 12,9 km/h (3 Bft) 95,74 %
07.06.2019 06:26 10,9 C 11,1 C 10,6 C 93 % 1013,4 hPa 0,0 l/m 0 min 0 min 33 W/m 16,1 km/h (3 Bft) 95,74 %
07.06.2019 06:28 10,9 C 11,7 C 10,6 C 93 % 1013,4 hPa 0,0 l/m 0 min 0 min 37 W/m 16,1 km/h (3 Bft) 95,74 %
07.06.2019 06:30 11,0 C 11,7 C 10,6 C 93 % 1013,3 hPa 0,0 l/m 0 min 0 min 40 W/m 9,7 km/h (2 Bft) 93,62 %
07.06.2019 06:32 11,1 C 11,7 C 10,6 C 93 % 1013,3 hPa 0,0 l/m 0 min 0 min 41 W/m 6,4 km/h (2 Bft) 93,48 %
07.06.2019 06:34 11,1 C 11,7 C 11,1 C 93 % 1013,2 hPa 0,0 l/m 0 min 0 min 40 W/m 12,9 km/h (3 Bft) 95,74 %
07.06.2019 06:36 11,2 C 11,7 C 11,1 C 93 % 1013,2 hPa 0,0 l/m 0 min 0 min 40 W/m 6,4 km/h (2 Bft) 94,92 %
07.06.2019 06:38 11,2 C 11,7 C 11,1 C 93 % 1013,1 hPa 0,0 l/m 0 min 0 min 39 W/m 22,5 km/h (4 Bft) 97,14 %
07.06.2019 06:40 11,2 C 11,7 C 11,1 C 93 % 1013,1 hPa 0,0 l/m 0 min 0 min 39 W/m 12,9 km/h (3 Bft) 95,92 %
07.06.2019 06:42 11,3 C 11,7 C 11,1 C 93 % 1013,0 hPa 0,0 l/m 0 min 0 min 39 W/m 9,7 km/h (2 Bft) 93,48 %
07.06.2019 06:44 11,3 C 11,7 C 11,1 C 93 % 1013,0 hPa 0,0 l/m 0 min 0 min 41 W/m 16,1 km/h (3 Bft) 97,87 %
07.06.2019 06:46 11,4 C 11,7 C 11,1 C 93 % 1013,0 hPa 0,0 l/m 0 min 0 min 43 W/m 9,7 km/h (2 Bft) 95,74 %
07.06.2019 06:48 11,4 C 11,7 C 11,1 C 93 % 1013,0 hPa 0,0 l/m 0 min 0 min 44 W/m 16,1 km/h (3 Bft) 95,74 %
07.06.2019 06:50 11,4 C 11,7 C 11,1 C 93 % 1013,0 hPa 0,0 l/m 0 min 0 min 47 W/m 16,1 km/h (3 Bft) 95,74 %
07.06.2019 06:52 11,5 C 11,7 C 11,1 C 93 % 1013,0 hPa 0,0 l/m 0 min 0 min 47 W/m 16,1 km/h (3 Bft) 100,00 %
07.06.2019 06:54 11,5 C 11,7 C 11,1 C 93 % 1013,0 hPa 0,0 l/m 0 min 0 min 47 W/m 9,7 km/h (2 Bft) 100,00 %
07.06.2019 06:56 11,6 C 11,7 C 11,1 C 93 % 1013,1 hPa 0,0 l/m 0 min 0 min 47 W/m 9,7 km/h (2 Bft) 100,00 %
07.06.2019 06:58 11,6 C 11,7 C 11,1 C 93 % 1013,0 hPa 0,0 l/m 0 min 0 min 46 W/m 22,5 km/h (4 Bft) 93,48 %
07.06.2019 07:00 11,6 C 11,7 C 11,1 C 92 % 1013,0 hPa 0,0 l/m 0 min 0 min 47 W/m 9,7 km/h (2 Bft) 100,00 %
07.06.2019 07:02 11,7 C 11,7 C 11,1 C 92 % 1013,0 hPa 0,0 l/m 0 min 0 min 46 W/m 12,9 km/h (3 Bft) 95,74 %
07.06.2019 07:04 11,7 C 11,7 C 11,1 C 92 % 1013,0 hPa 0,0 l/m 0 min 0 min 48 W/m 9,7 km/h (2 Bft) 97,87 %
07.06.2019 07:06 11,7 C 12,2 C 11,1 C 92 % 1013,0 hPa 0,0 l/m 0 min 0 min 52 W/m 9,7 km/h (2 Bft) 98,15 %
07.06.2019 07:08 11,8 C 12,2 C 11,7 C 92 % 1013,0 hPa 0,0 l/m 0 min 0 min 58 W/m 9,7 km/h (2 Bft) 94,59 %
07.06.2019 07:10 11,8 C 12,2 C 11,7 C 92 % 1013,0 hPa 0,0 l/m 0 min 0 min 64 W/m 9,7 km/h (2 Bft) 97,96 %
07.06.2019 07:12 11,8 C 12,2 C 11,7 C 92 % 1013,0 hPa 0,0 l/m 0 min 0 min 67 W/m 12,9 km/h (3 Bft) 97,87 %
07.06.2019 07:14 11,9 C 12,2 C 11,7 C 92 % 1013,0 hPa 0,0 l/m 0 min 0 min 68 W/m 9,7 km/h (2 Bft) 97,87 %
07.06.2019 07:16 11,9 C 12,2 C 11,7 C 92 % 1013,0 hPa 0,0 l/m 0 min 0 min 68 W/m 9,7 km/h (2 Bft) 93,62 %
07.06.2019 07:18 11,9 C 12,2 C 11,7 C 92 % 1013,0 hPa 0,0 l/m 0 min 0 min 62 W/m 9,7 km/h (2 Bft) 97,87 %
07.06.2019 07:20 12,0 C 12,2 C 11,7 C 91 % 1013,0 hPa 0,0 l/m 0 min 0 min 60 W/m 9,7 km/h (2 Bft) 95,74 %
07.06.2019 07:22 12,1 C 12,2 C 11,7 C 91 % 1013,0 hPa 0,0 l/m 0 min 0 min 60 W/m 9,7 km/h (2 Bft) 97,83 %
07.06.2019 07:24 12,1 C 12,2 C 11,7 C 91 % 1013,0 hPa 0,0 l/m 0 min 0 min 61 W/m 16,1 km/h (3 Bft) 97,87 %
07.06.2019 07:26 12,1 C 12,2 C 11,7 C 91 % 1012,9 hPa 0,0 l/m 0 min 0 min 62 W/m 9,7 km/h (2 Bft) 95,74 %
07.06.2019 07:28 12,1 C 12,8 C 11,7 C 91 % 1012,9 hPa 0,0 l/m 0 min 0 min 63 W/m 9,7 km/h (2 Bft) 97,87 %
07.06.2019 07:30 12,2 C 12,8 C 11,7 C 91 % 1012,8 hPa 0,0 l/m 0 min 0 min 70 W/m 9,7 km/h (2 Bft) 97,87 %
07.06.2019 07:32 12,2 C 12,8 C 11,7 C 91 % 1012,7 hPa 0,0 l/m 0 min 0 min 74 W/m 9,7 km/h (2 Bft) 97,87 %
07.06.2019 07:34 12,3 C 12,8 C 11,7 C 91 % 1012,7 hPa 0,0 l/m 0 min 0 min 77 W/m 9,7 km/h (2 Bft) 97,83 %
07.06.2019 07:36 12,3 C 12,8 C 12,2 C 91 % 1012,7 hPa 0,0 l/m 0 min 0 min 79 W/m 9,7 km/h (2 Bft) 93,22 %
07.06.2019 07:38 12,3 C 12,8 C 12,2 C 91 % 1012,7 hPa 0,0 l/m 0 min 0 min 82 W/m 9,7 km/h (2 Bft) 97,14 %
07.06.2019 07:40 12,4 C 12,8 C 12,2 C 91 % 1012,6 hPa 0,0 l/m 0 min 0 min 82 W/m 6,4 km/h (2 Bft) 97,87 %
07.06.2019 07:42 12,4 C 12,8 C 12,2 C 91 % 1012,6 hPa 0,0 l/m 0 min 0 min 78 W/m 9,7 km/h (2 Bft) 97,87 %
07.06.2019 07:44 12,5 C 13,3 C 12,2 C 91 % 1012,6 hPa 0,0 l/m 0 min 0 min 75 W/m 9,7 km/h (2 Bft) 100,00 %
07.06.2019 07:46 12,6 C 13,3 C 12,2 C 91 % 1012,5 hPa 0,0 l/m 0 min 0 min 74 W/m 12,9 km/h (3 Bft) 100,00 %
07.06.2019 07:48 12,6 C 13,3 C 12,2 C 90 % 1012,6 hPa 0,0 l/m 0 min 0 min 76 W/m 12,9 km/h (3 Bft) 100,00 %
07.06.2019 07:50 12,7 C 13,3 C 12,2 C 90 % 1012,6 hPa 0,0 l/m 0 min 0 min 79 W/m 9,7 km/h (2 Bft) 100,00 %
07.06.2019 07:52 12,7 C 13,3 C 12,2 C 90 % 1012,6 hPa 0,0 l/m 0 min 0 min 84 W/m 9,7 km/h (2 Bft) 100,00 %
07.06.2019 07:54 12,8 C 13,3 C 12,2 C 90 % 1012,6 hPa 0,0 l/m 0 min 0 min 89 W/m 9,7 km/h (2 Bft) 100,00 %
07.06.2019 07:56 12,8 C 13,9 C 12,2 C 90 % 1012,6 hPa 0,0 l/m 0 min 0 min 95 W/m 9,7 km/h (2 Bft) 100,00 %
07.06.2019 07:58 12,9 C 15,6 C 12,8 C 90 % 1012,6 hPa 0,0 l/m 0 min 0 min 98 W/m 12,9 km/h (3 Bft) 100,00 %
07.06.2019 08:00 12,9 C 16,7 C 12,8 C 90 % 1012,4 hPa 0,0 l/m 0 min 0 min 102 W/m 12,9 km/h (3 Bft) 100,00 %
07.06.2019 08:02 13,0 C 17,2 C 12,8 C 89 % 1012,5 hPa 0,0 l/m 0 min 0 min 101 W/m 9,7 km/h (2 Bft) 97,87 %
07.06.2019 08:04 13,1 C 17,8 C 12,8 C 89 % 1012,5 hPa 0,0 l/m 0 min 0 min 106 W/m 12,9 km/h (3 Bft) 100,00 %
07.06.2019 08:06 13,2 C 17,8 C 12,8 C 89 % 1012,4 hPa 0,0 l/m 0 min 0 min 107 W/m 9,7 km/h (2 Bft) 100,00 %
07.06.2019 08:08 13,3 C 17,8 C 13,3 C 89 % 1012,4 hPa 0,0 l/m 0 min 0 min 108 W/m 12,9 km/h (3 Bft) 100,00 %
07.06.2019 08:10 13,4 C 17,8 C 13,3 C 89 % 1012,3 hPa 0,0 l/m 0 min 0 min 107 W/m 12,9 km/h (3 Bft) 100,00 %
07.06.2019 08:12 13,6 C 17,8 C 13,3 C 88 % 1012,2 hPa 0,0 l/m 0 min 0 min 109 W/m 16,1 km/h (3 Bft) 100,00 %
07.06.2019 08:14 13,7 C 17,8 C 13,3 C 87 % 1012,2 hPa 0,0 l/m 0 min 0 min 113 W/m 16,1 km/h (3 Bft) 100,00 %
07.06.2019 08:16 13,8 C 17,8 C 13,9 C 87 % 1012,2 hPa 0,0 l/m 0 min 0 min 118 W/m 16,1 km/h (3 Bft) 100,00 %
07.06.2019 08:18 14,0 C 18,3 C 13,9 C 86 % 1012,3 hPa 0,0 l/m 0 min 0 min 123 W/m 16,1 km/h (3 Bft) 100,00 %
07.06.2019 08:20 14,2 C 18,3 C 13,9 C 86 % 1012,2 hPa 0,0 l/m 0 min 0 min 134 W/m 16,1 km/h (3 Bft) 100,00 %
07.06.2019 08:22 14,2 C 18,3 C 14,4 C 85 % 1012,2 hPa 0,0 l/m 0 min 0 min 147 W/m 19,3 km/h (3 Bft) 97,87 %
07.06.2019 08:24 14,4 C 18,9 C 15,0 C 85 % 1012,2 hPa 0,0 l/m 0 min 0 min 156 W/m 12,9 km/h (3 Bft) 100,00 %
07.06.2019 08:26 14,6 C 18,9 C 15,6 C 84 % 1012,3 hPa 0,0 l/m 0 min 0 min 164 W/m 16,1 km/h (3 Bft) 100,00 %
07.06.2019 08:28 14,7 C 18,3 C 17,2 C 84 % 1012,3 hPa 0,0 l/m 0 min 0 min 163 W/m 12,9 km/h (3 Bft) 100,00 %
07.06.2019 08:30 14,8 C 17,8 C 17,2 C 83 % 1012,3 hPa 0,0 l/m 0 min 0 min 158 W/m 25,7 km/h (4 Bft) 100,00 %
07.06.2019 08:32 14,9 C 18,3 C 18,3 C 82 % 1012,3 hPa 0,0 l/m 0 min 0 min 164 W/m 16,1 km/h (3 Bft) 100,00 %
07.06.2019 08:34 15,0 C 18,3 C 18,9 C 82 % 1012,3 hPa 0,0 l/m 0 min 0 min 168 W/m 16,1 km/h (3 Bft) 97,87 %
07.06.2019 08:36 15,1 C 18,3 C 19,4 C 81 % 1012,2 hPa 0,0 l/m 0 min 0 min 178 W/m 16,1 km/h (3 Bft) 98,31 %
07.06.2019 08:38 15,2 C 17,8 C 18,9 C 81 % 1012,2 hPa 0,0 l/m 0 min 0 min 170 W/m 16,1 km/h (3 Bft) 100,00 %
07.06.2019 08:40 15,3 C 16,7 C 17,8 C 81 % 1012,2 hPa 0,0 l/m 0 min 0 min 163 W/m 25,7 km/h (4 Bft) 100,00 %
07.06.2019 08:42 15,3 C 16,7 C 17,2 C 80 % 1012,2 hPa 0,0 l/m 0 min 0 min 164 W/m 16,1 km/h (3 Bft) 100,00 %
07.06.2019 08:44 15,4 C 17,8 C 18,9 C 80 % 1012,1 hPa 0,0 l/m 0 min 0 min 176 W/m 22,5 km/h (4 Bft) 97,87 %
07.06.2019 08:46 15,5 C 18,3 C 20,0 C 80 % 1012,0 hPa 0,0 l/m 0 min 0 min 184 W/m 29,0 km/h (5 Bft) 95,74 %
07.06.2019 08:48 15,5 C 18,9 C 20,0 C 79 % 1012,0 hPa 0,0 l/m 0 min 0 min 193 W/m 22,5 km/h (4 Bft) 95,74 %
07.06.2019 08:50 15,6 C 18,9 C 20,6 C 79 % 1012,0 hPa 0,0 l/m 0 min 0 min 207 W/m 12,9 km/h (3 Bft) 100,00 %
07.06.2019 08:52 15,7 C 18,3 C 20,6 C 79 % 1011,9 hPa 0,0 l/m 0 min 0 min 214 W/m 16,1 km/h (3 Bft) 97,83 %
07.06.2019 08:54 15,8 C 18,9 C 20,6 C 79 % 1012,0 hPa 0,0 l/m 0 min 0 min 234 W/m 12,9 km/h (3 Bft) 97,87 %
07.06.2019 08:56 15,8 C 18,3 C 20,6 C 79 % 1012,0 hPa 0,0 l/m 0 min 0 min 260 W/m 22,5 km/h (4 Bft) 95,74 %
07.06.2019 08:58 15,9 C 18,9 C 20,6 C 78 % 1012,0 hPa 0,0 l/m 2 min 0 min 296 W/m 22,5 km/h (4 Bft) 97,87 %
07.06.2019 09:00 15,9 C 18,9 C 20,6 C 78 % 1012,0 hPa 0,0 l/m 2 min 0 min 320 W/m 16,1 km/h (3 Bft) 97,87 %
07.06.2019 09:02 16,0 C 18,9 C 21,1 C 77 % 1012,0 hPa 0,0 l/m 2 min 0 min 347 W/m 19,3 km/h (3 Bft) 95,74 %
07.06.2019 09:04 16,0 C 18,9 C 21,1 C 77 % 1012,0 hPa 0,0 l/m 2 min 0 min 367 W/m 19,3 km/h (3 Bft) 95,65 %
07.06.2019 09:06 16,1 C 20,0 C 22,2 C 77 % 1011,9 hPa 0,0 l/m 2 min 0 min 452 W/m 12,9 km/h (3 Bft) 94,92 %
07.06.2019 09:08 16,2 C 20,6 C 22,8 C 77 % 1011,9 hPa 0,0 l/m 2 min 0 min 488 W/m 19,3 km/h (3 Bft) 94,29 %
07.06.2019 09:10 16,3 C 20,6 C 22,8 C 77 % 1011,9 hPa 0,0 l/m 2 min 0 min 518 W/m 22,5 km/h (4 Bft) 95,92 %
07.06.2019 09:12 16,3 C 20,0 C 22,2 C 76 % 1011,9 hPa 0,0 l/m 2 min 0 min 538 W/m 25,7 km/h (4 Bft) 93,62 %
07.06.2019 09:14 16,4 C 19,4 C 21,7 C 75 % 1012,0 hPa 0,0 l/m 2 min 0 min 530 W/m 35,4 km/h (5 Bft) 95,74 %
07.06.2019 09:16 16,5 C 20,0 C 22,2 C 75 % 1011,8 hPa 0,0 l/m 2 min 0 min 560 W/m 29,0 km/h (5 Bft) 95,65 %
07.06.2019 09:18 16,6 C 19,4 C 21,1 C 74 % 1011,9 hPa 0,0 l/m 2 min 0 min 624 W/m 32,2 km/h (5 Bft) 95,74 %
07.06.2019 09:20 16,6 C 18,9 C 20,6 C 73 % 1011,9 hPa 0,0 l/m 2 min 0 min 542 W/m 35,4 km/h (5 Bft) 93,62 %
07.06.2019 09:22 16,6 C 18,9 C 20,0 C 73 % 1011,9 hPa 0,0 l/m 2 min 0 min 448 W/m 32,2 km/h (5 Bft) 93,88 %
07.06.2019 09:24 16,7 C 18,9 C 20,0 C 73 % 1011,9 hPa 0,0 l/m 2 min 0 min 450 W/m 19,3 km/h (3 Bft) 91,49 %
07.06.2019 09:26 16,7 C 18,9 C 20,0 C 73 % 1011,9 hPa 0,0 l/m 2 min 0 min 470 W/m 45,1 km/h (6 Bft) 93,48 %
07.06.2019 09:28 16,7 C 19,4 C 20,6 C 73 % 1011,9 hPa 0,0 l/m 2 min 0 min 518 W/m 29,0 km/h (5 Bft) 91,49 %
07.06.2019 09:30 16,7 C 19,4 C 21,1 C 74 % 1011,8 hPa 0,0 l/m 2 min 0 min 468 W/m 16,1 km/h (3 Bft) 93,62 %
07.06.2019 09:32 16,8 C 20,0 C 21,7 C 74 % 1011,7 hPa 0,0 l/m 2 min 0 min 480 W/m 16,1 km/h (3 Bft) 93,62 %
07.06.2019 09:34 16,8 C 19,4 C 21,1 C 73 % 1011,8 hPa 0,0 l/m 2 min 0 min 538 W/m 38,6 km/h (5 Bft) 93,62 %
07.06.2019 09:36 16,8 C 20,0 C 21,7 C 73 % 1011,6 hPa 0,0 l/m 2 min 0 min 591 W/m 32,2 km/h (5 Bft) 93,62 %
07.06.2019 09:38 16,9 C 20,0 C 22,2 C 72 % 1011,6 hPa 0,0 l/m 2 min 0 min 550 W/m 25,7 km/h (4 Bft) 91,67 %
07.06.2019 09:40 16,9 C 19,4 C 21,1 C 72 % 1011,6 hPa 0,0 l/m 2 min 0 min 549 W/m 45,1 km/h (6 Bft) 93,88 %
07.06.2019 09:42 16,9 C 20,6 C 22,2 C 73 % 1011,5 hPa 0,0 l/m 2 min 0 min 544 W/m 16,1 km/h (3 Bft) 93,48 %
07.06.2019 09:44 17,0 C 20,6 C 22,8 C 73 % 1011,4 hPa 0,0 l/m 2 min 0 min 552 W/m 19,3 km/h (3 Bft) 93,62 %
07.06.2019 09:46 17,1 C 20,0 C 21,7 C 72 % 1011,4 hPa 0,0 l/m 2 min 0 min 577 W/m 25,7 km/h (4 Bft) 93,62 %
07.06.2019 09:48 17,2 C 21,1 C 22,8 C 73 % 1011,4 hPa 0,0 l/m 2 min 0 min 581 W/m 16,1 km/h (3 Bft) 95,74 %
07.06.2019 09:50 17,2 C 21,7 C 23,9 C 73 % 1011,4 hPa 0,0 l/m 2 min 0 min 645 W/m 22,5 km/h (4 Bft) 95,74 %
07.06.2019 09:52 17,3 C 22,2 C 24,4 C 73 % 1011,4 hPa 0,0 l/m 2 min 0 min 663 W/m 19,3 km/h (3 Bft) 97,87 %
07.06.2019 09:54 17,4 C 21,7 C 23,9 C 72 % 1011,4 hPa 0,0 l/m 2 min 0 min 611 W/m 19,3 km/h (3 Bft) 93,48 %
07.06.2019 09:56 17,6 C 21,7 C 23,9 C 72 % 1011,4 hPa 0,0 l/m 2 min 0 min 616 W/m 22,5 km/h (4 Bft) 91,49 %
07.06.2019 09:58 17,6 C 21,7 C 23,9 C 71 % 1011,4 hPa 0,0 l/m 2 min 0 min 652 W/m 32,2 km/h (5 Bft) 95,74 %
07.06.2019 10:00 17,7 C 21,7 C 23,9 C 71 % 1011,4 hPa 0,0 l/m 2 min 0 min 658 W/m 25,7 km/h (4 Bft) 95,74 %
07.06.2019 10:02 17,7 C 20,6 C 22,8 C 70 % 1011,2 hPa 0,0 l/m 2 min 0 min 657 W/m 45,1 km/h (6 Bft) 95,24 %
07.06.2019 10:04 17,8 C 21,1 C 23,3 C 69 % 1011,3 hPa 0,0 l/m 2 min 0 min 632 W/m 41,8 km/h (6 Bft) 95,74 %
07.06.2019 10:06 17,8 C 21,7 C 24,4 C 70 % 1011,1 hPa 0,0 l/m 2 min 0 min 650 W/m 16,1 km/h (3 Bft) 95,74 %
07.06.2019 10:08 17,9 C 21,1 C 23,9 C 70 % 1011,2 hPa 0,0 l/m 2 min 0 min 681 W/m 29,0 km/h (5 Bft) 97,87 %
07.06.2019 10:10 17,9 C 21,1 C 23,3 C 69 % 1011,0 hPa 0,0 l/m 2 min 0 min 694 W/m 35,4 km/h (5 Bft) 97,96 %
07.06.2019 10:12 18,0 C 21,7 C 23,9 C 70 % 1011,1 hPa 0,0 l/m 2 min 0 min 692 W/m 32,2 km/h (5 Bft) 97,87 %
07.06.2019 10:14 18,1 C 22,2 C 24,4 C 70 % 1011,0 hPa 0,0 l/m 2 min 0 min 693 W/m 16,1 km/h (3 Bft) 97,83 %
07.06.2019 10:16 18,1 C 22,8 C 25,0 C 70 % 1010,9 hPa 0,0 l/m 2 min 0 min 702 W/m 19,3 km/h (3 Bft) 97,96 %
07.06.2019 10:18 18,2 C 22,2 C 25,0 C 70 % 1010,8 hPa 0,0 l/m 2 min 0 min 698 W/m 25,7 km/h (4 Bft) 97,87 %
07.06.2019 10:20 18,3 C 22,2 C 25,0 C 69 % 1010,7 hPa 0,0 l/m 2 min 0 min 707 W/m 29,0 km/h (5 Bft) 97,87 %
07.06.2019 10:22 18,4 C 22,8 C 25,0 C 69 % 1010,7 hPa 0,0 l/m 2 min 0 min 700 W/m 25,7 km/h (4 Bft) 100,00 %
07.06.2019 10:24 18,4 C 22,8 C 25,6 C 69 % 1010,6 hPa 0,0 l/m 2 min 0 min 722 W/m 25,7 km/h (4 Bft) 100,00 %
07.06.2019 10:26 18,5 C 23,3 C 26,1 C 69 % 1010,6 hPa 0,0 l/m 2 min 0 min 726 W/m 19,3 km/h (3 Bft) 100,00 %
07.06.2019 10:28 18,7 C 22,8 C 26,1 C 69 % 1010,5 hPa 0,0 l/m 2 min 0 min 718 W/m 19,3 km/h (3 Bft) 100,00 %
07.06.2019 10:30 18,7 C 22,2 C 26,1 C 69 % 1010,5 hPa 0,0 l/m 2 min 0 min 732 W/m 25,7 km/h (4 Bft) 100,00 %
07.06.2019 10:32 18,7 C 22,8 C 26,1 C 68 % 1010,5 hPa 0,0 l/m 2 min 0 min 747 W/m 22,5 km/h (4 Bft) 100,00 %
07.06.2019 10:34 18,7 C 22,8 C 25,6 C 67 % 1010,5 hPa 0,0 l/m 2 min 0 min 754 W/m 25,7 km/h (4 Bft) 100,00 %
07.06.2019 10:36 18,8 C 22,8 C 25,6 C 67 % 1010,5 hPa 0,0 l/m 2 min 0 min 758 W/m 29,0 km/h (5 Bft) 100,00 %
07.06.2019 10:38 18,8 C 22,8 C 26,1 C 68 % 1010,5 hPa 0,0 l/m 2 min 0 min 769 W/m 22,5 km/h (4 Bft) 100,00 %
07.06.2019 10:40 18,9 C 22,2 C 24,4 C 68 % 1010,5 hPa 0,0 l/m 2 min 0 min 775 W/m 32,2 km/h (5 Bft) 100,00 %
07.06.2019 10:42 18,9 C 21,7 C 24,4 C 68 % 1010,4 hPa 0,0 l/m 2 min 0 min 702 W/m 38,6 km/h (5 Bft) 100,00 %
07.06.2019 10:44 18,9 C 22,2 C 25,0 C 67 % 1010,4 hPa 0,0 l/m 2 min 0 min 769 W/m 22,5 km/h (4 Bft) 100,00 %
07.06.2019 10:46 18,9 C 22,8 C 25,6 C 67 % 1010,3 hPa 0,0 l/m 2 min 0 min 778 W/m 22,5 km/h (4 Bft) 100,00 %
07.06.2019 10:48 18,9 C 23,3 C 26,1 C 68 % 1010,3 hPa 0,0 l/m 2 min 0 min 826 W/m 16,1 km/h (3 Bft) 100,00 %
07.06.2019 10:50 18,9 C 22,2 C 24,4 C 67 % 1010,3 hPa 0,0 l/m 2 min 0 min 703 W/m 29,0 km/h (5 Bft) 100,00 %
07.06.2019 10:52 19,0 C 22,2 C 24,4 C 67 % 1010,2 hPa 0,0 l/m 2 min 0 min 495 W/m 29,0 km/h (5 Bft) 97,83 %
07.06.2019 10:54 19,0 C 21,1 C 23,3 C 67 % 1010,3 hPa 0,0 l/m 2 min 0 min 622 W/m 35,4 km/h (5 Bft) 100,00 %
07.06.2019 10:56 19,0 C 21,7 C 23,3 C 66 % 1010,2 hPa 0,0 l/m 2 min 0 min 644 W/m 35,4 km/h (5 Bft) 100,00 %
07.06.2019 10:58 19,0 C 22,8 C 24,4 C 67 % 1010,2 hPa 0,0 l/m 2 min 0 min 764 W/m 29,0 km/h (5 Bft) 100,00 %
07.06.2019 11:00 19,0 C 23,3 C 25,6 C 67 % 1009,9 hPa 0,0 l/m 2 min 0 min 783 W/m 25,7 km/h (4 Bft) 100,00 %
07.06.2019 11:02 19,1 C 23,3 C 26,1 C 67 % 1009,9 hPa 0,0 l/m 2 min 0 min 817 W/m 25,7 km/h (4 Bft) 100,00 %
07.06.2019 11:04 19,2 C 23,3 C 26,7 C 67 % 1009,9 hPa 0,0 l/m 2 min 0 min 818 W/m 25,7 km/h (4 Bft) 100,00 %
07.06.2019 11:06 19,2 C 23,9 C 26,1 C 66 % 1009,9 hPa 0,0 l/m 2 min 0 min 808 W/m 32,2 km/h (5 Bft) 95,74 %
07.06.2019 11:08 19,3 C 23,3 C 25,6 C 66 % 1009,8 hPa 0,0 l/m 2 min 0 min 806 W/m 35,4 km/h (5 Bft) 100,00 %
07.06.2019 11:10 19,4 C 23,3 C 26,1 C 66 % 1009,8 hPa 0,0 l/m 2 min 0 min 815 W/m 22,5 km/h (4 Bft) 100,00 %
07.06.2019 11:12 19,4 C 22,8 C 25,0 C 66 % 1009,8 hPa 0,0 l/m 2 min 0 min 748 W/m 32,2 km/h (5 Bft) 97,87 %
07.06.2019 11:14 19,4 C 22,8 C 25,0 C 66 % 1009,9 hPa 0,0 l/m 2 min 0 min 696 W/m 29,0 km/h (5 Bft) 100,00 %
07.06.2019 11:16 19,5 C 23,3 C 25,0 C 66 % 1009,8 hPa 0,0 l/m 2 min 0 min 761 W/m 25,7 km/h (4 Bft) 100,00 %
07.06.2019 11:18 19,5 C 22,2 C 24,4 C 65 % 1010,0 hPa 0,0 l/m 2 min 0 min 847 W/m 32,2 km/h (5 Bft) 100,00 %
07.06.2019 11:20 19,5 C 22,2 C 23,9 C 65 % 1009,9 hPa 0,0 l/m 2 min 0 min 444 W/m 22,5 km/h (4 Bft) 100,00 %
07.06.2019 11:22 19,6 C 22,2 C 24,4 C 66 % 1009,8 hPa 0,0 l/m 0 min 0 min 329 W/m 32,2 km/h (5 Bft) 100,00 %
07.06.2019 11:24 19,6 C 22,8 C 25,6 C 66 % 1009,8 hPa 0,0 l/m 2 min 0 min 831 W/m 25,7 km/h (4 Bft) 100,00 %
07.06.2019 11:26 19,6 C 22,8 C 25,0 C 65 % 1009,8 hPa 0,0 l/m 2 min 0 min 807 W/m 29,0 km/h (5 Bft) 100,00 %
07.06.2019 11:28 19,6 C 23,3 C 25,0 C 65 % 1009,7 hPa 0,0 l/m 2 min 0 min 849 W/m 32,2 km/h (5 Bft) 100,00 %
07.06.2019 11:30 19,7 C 23,9 C 25,6 C 65 % 1009,7 hPa 0,0 l/m 2 min 0 min 843 W/m 22,5 km/h (4 Bft) 100,00 %
07.06.2019 11:32 19,7 C 23,9 C 26,7 C 66 % 1009,5 hPa 0,0 l/m 2 min 0 min 853 W/m 22,5 km/h (4 Bft) 100,00 %
07.06.2019 11:34 19,8 C 24,4 C 27,2 C 66 % 1009,4 hPa 0,0 l/m 2 min 0 min 852 W/m 19,3 km/h (3 Bft) 100,00 %
07.06.2019 11:36 19,9 C 24,4 C 27,2 C 66 % 1009,4 hPa 0,0 l/m 2 min 0 min 850 W/m 29,0 km/h (5 Bft) 100,00 %
07.06.2019 11:38 20,0 C 24,4 C 27,2 C 66 % 1009,4 hPa 0,0 l/m 2 min 0 min 856 W/m 29,0 km/h (5 Bft) 100,00 %
07.06.2019 11:40 20,1 C 24,4 C 27,8 C 66 % 1009,3 hPa 0,0 l/m 2 min 0 min 862 W/m 19,3 km/h (3 Bft) 100,00 %
07.06.2019 11:42 20,2 C 24,4 C 28,3 C 66 % 1009,3 hPa 0,0 l/m 2 min 0 min 866 W/m 22,5 km/h (4 Bft) 100,00 %
07.06.2019 11:44 20,2 C 24,4 C 28,3 C 65 % 1009,2 hPa 0,0 l/m 2 min 0 min 871 W/m 19,3 km/h (3 Bft) 100,00 %
07.06.2019 11:46 20,3 C 25,0 C 28,9 C 66 % 1009,2 hPa 0,0 l/m 2 min 0 min 875 W/m 16,1 km/h (3 Bft) 97,87 %
07.06.2019 11:48 20,4 C 24,4 C 28,9 C 65 % 1009,2 hPa 0,0 l/m 2 min 0 min 877 W/m 25,7 km/h (4 Bft) 100,00 %
07.06.2019 11:50 20,5 C 25,0 C 27,8 C 65 % 1009,1 hPa 0,0 l/m 2 min 0 min 877 W/m 25,7 km/h (4 Bft) 100,00 %
07.06.2019 11:52 20,6 C 25,0 C 28,3 C 65 % 1009,1 hPa 0,0 l/m 2 min 0 min 879 W/m 22,5 km/h (4 Bft) 97,87 %
07.06.2019 11:54 20,6 C 24,4 C 28,9 C 65 % 1009,2 hPa 0,0 l/m 2 min 0 min 872 W/m 19,3 km/h (3 Bft) 97,87 %
07.06.2019 11:56 20,7 C 24,4 C 28,9 C 65 % 1009,2 hPa 0,0 l/m 2 min 0 min 873 W/m 19,3 km/h (3 Bft) 95,74 %
07.06.2019 11:58 20,8 C 25,0 C 29,4 C 65 % 1009,2 hPa 0,0 l/m 2 min 0 min 881 W/m 22,5 km/h (4 Bft) 91,49 %
07.06.2019 12:00 20,8 C 25,0 C 29,4 C 64 % 1009,2 hPa 0,0 l/m 2 min 0 min 885 W/m 29,0 km/h (5 Bft) 93,48 %
07.06.2019 12:02 20,9 C 25,0 C 29,4 C 64 % 1009,2 hPa 0,0 l/m 2 min 0 min 880 W/m 25,7 km/h (4 Bft) 96,08 %
07.06.2019 12:04 20,9 C 25,0 C 28,9 C 64 % 1009,1 hPa 0,0 l/m 2 min 0 min 883 W/m 29,0 km/h (5 Bft) 95,74 %
07.06.2019 12:07 21,0 C 25,6 C 29,4 C 64 % 1009,1 hPa 0,0 l/m 3 min 0 min 885 W/m 35,4 km/h (5 Bft) 93,94 %
07.06.2019 12:08 21,0 C 26,1 C 29,4 C 64 % 1009,1 hPa 0,0 l/m 1 min 0 min 894 W/m 32,2 km/h (5 Bft) 95,83 %
07.06.2019 12:10 21,1 C 25,6 C 28,9 C 64 % 1009,1 hPa 0,0 l/m 2 min 0 min 898 W/m 25,7 km/h (4 Bft) 93,75 %
07.06.2019 12:12 21,2 C 26,1 C 30,0 C 64 % 1009,0 hPa 0,0 l/m 2 min 0 min 905 W/m 22,5 km/h (4 Bft) 95,74 %
07.06.2019 12:14 21,2 C 25,6 C 28,9 C 63 % 1009,1 hPa 0,0 l/m 2 min 0 min 908 W/m 22,5 km/h (4 Bft) 93,62 %
07.06.2019 12:16 21,3 C 25,0 C 28,3 C 63 % 1009,0 hPa 0,0 l/m 2 min 0 min 912 W/m 25,7 km/h (4 Bft) 95,74 %
07.06.2019 12:18 21,3 C 25,0 C 28,3 C 62 % 1009,1 hPa 0,0 l/m 2 min 0 min 913 W/m 32,2 km/h (5 Bft) 91,49 %
07.06.2019 12:20 21,4 C 26,1 C 29,4 C 62 % 1009,0 hPa 0,0 l/m 2 min 0 min 922 W/m 29,0 km/h (5 Bft) 95,74 %
07.06.2019 12:22 21,5 C 26,1 C 30,0 C 62 % 1009,1 hPa 0,0 l/m 2 min 0 min 933 W/m 22,5 km/h (4 Bft) 95,83 %
07.06.2019 12:24 21,6 C 26,1 C 30,0 C 62 % 1009,0 hPa 0,0 l/m 2 min 0 min 941 W/m 25,7 km/h (4 Bft) 95,74 %
07.06.2019 12:26 21,6 C 27,2 C 31,1 C 63 % 1009,0 hPa 0,0 l/m 2 min 0 min 940 W/m 16,1 km/h (3 Bft) 95,74 %
07.06.2019 12:28 21,7 C 26,7 C 31,7 C 62 % 1009,0 hPa 0,0 l/m 2 min 0 min 933 W/m 16,1 km/h (3 Bft) 95,74 %
07.06.2019 12:30 21,8 C 27,2 C 31,1 C 62 % 1009,0 hPa 0,0 l/m 2 min 0 min 932 W/m 12,9 km/h (3 Bft) 93,62 %
07.06.2019 12:32 21,9 C 27,2 C 31,1 C 62 % 1009,0 hPa 0,0 l/m 2 min 0 min 947 W/m 16,1 km/h (3 Bft) 95,74 %
07.06.2019 12:34 22,0 C 27,2 C 31,1 C 62 % 1009,1 hPa 0,0 l/m 2 min 0 min 949 W/m 19,3 km/h (3 Bft) 93,62 %
07.06.2019 12:36 22,1 C 26,7 C 31,1 C 61 % 1009,0 hPa 0,0 l/m 2 min 0 min 953 W/m 19,3 km/h (3 Bft) 97,87 %
07.06.2019 12:38 22,2 C 26,7 C 30,6 C 60 % 1009,0 hPa 0,0 l/m 2 min 0 min 954 W/m 16,1 km/h (3 Bft) 97,83 %
07.06.2019 12:40 22,3 C 26,7 C 30,6 C 61 % 1009,0 hPa 0,0 l/m 2 min 0 min 956 W/m 25,7 km/h (4 Bft) 97,87 %
07.06.2019 12:42 22,3 C 26,7 C 30,0 C 61 % 1008,9 hPa 0,0 l/m 2 min 0 min 947 W/m 29,0 km/h (5 Bft) 97,87 %
07.06.2019 12:44 22,4 C 26,7 C 30,6 C 60 % 1008,8 hPa 0,0 l/m 2 min 0 min 936 W/m 25,7 km/h (4 Bft) 93,62 %
07.06.2019 12:46 22,5 C 27,2 C 31,1 C 61 % 1008,8 hPa 0,0 l/m 2 min 0 min 938 W/m 19,3 km/h (3 Bft) 97,87 %
07.06.2019 12:48 22,6 C 26,7 C 30,0 C 60 % 1008,7 hPa 0,0 l/m 2 min 0 min 939 W/m 25,7 km/h (4 Bft) 97,83 %
07.06.2019 12:50 22,5 C 25,0 C 28,3 C 59 % 1008,6 hPa 0,0 l/m 2 min 0 min 924 W/m 41,8 km/h (6 Bft) 97,87 %
07.06.2019 12:52 22,5 C 25,6 C 28,9 C 59 % 1008,6 hPa 0,0 l/m 2 min 0 min 948 W/m 29,0 km/h (5 Bft) 97,87 %
07.06.2019 12:54 22,5 C 26,1 C 29,4 C 60 % 1008,6 hPa 0,0 l/m 2 min 0 min 952 W/m 32,2 km/h (5 Bft) 95,74 %
07.06.2019 12:56 22,5 C 26,7 C 30,0 C 60 % 1008,5 hPa 0,0 l/m 2 min 0 min 956 W/m 35,4 km/h (5 Bft) 100,00 %
07.06.2019 12:58 22,6 C 26,7 C 30,0 C 60 % 1008,5 hPa 0,0 l/m 2 min 0 min 956 W/m 41,8 km/h (6 Bft) 97,87 %
07.06.2019 13:00 22,6 C 26,1 C 28,9 C 59 % 1008,5 hPa 0,0 l/m 2 min 0 min 951 W/m 41,8 km/h (6 Bft) 100,00 %
07.06.2019 13:02 22,6 C 26,1 C 30,0 C 59 % 1008,4 hPa 0,0 l/m 2 min 0 min 952 W/m 29,0 km/h (5 Bft) 100,00 %
07.06.2019 13:04 22,6 C 26,1 C 30,0 C 58 % 1008,3 hPa 0,0 l/m 2 min 0 min 951 W/m 45,1 km/h (6 Bft) 97,87 %
07.06.2019 13:06 22,6 C 26,7 C 30,6 C 60 % 1008,2 hPa 0,0 l/m 2 min 0 min 952 W/m 22,5 km/h (4 Bft) 100,00 %
07.06.2019 13:08 22,7 C 26,7 C 31,1 C 60 % 1008,1 hPa 0,0 l/m 2 min 0 min 953 W/m 19,3 km/h (3 Bft) 100,00 %
07.06.2019 13:10 22,7 C 26,7 C 31,1 C 61 % 1008,0 hPa 0,0 l/m 2 min 0 min 955 W/m 38,6 km/h (5 Bft) 100,00 %
07.06.2019 13:12 22,8 C 26,7 C 31,1 C 59 % 1008,0 hPa 0,0 l/m 2 min 0 min 955 W/m 32,2 km/h (5 Bft) 100,00 %
07.06.2019 13:14 22,8 C 26,1 C 29,4 C 59 % 1008,0 hPa 0,0 l/m 2 min 0 min 954 W/m 51,5 km/h (7 Bft) 97,87 %
07.06.2019 13:16 22,8 C 26,1 C 30,0 C 58 % 1008,0 hPa 0,0 l/m 2 min 0 min 951 W/m 41,8 km/h (6 Bft) 97,87 %
07.06.2019 13:18 22,8 C 26,1 C 28,9 C 58 % 1007,9 hPa 0,0 l/m 2 min 0 min 951 W/m 35,4 km/h (5 Bft) 97,87 %
07.06.2019 13:20 22,9 C 27,2 C 30,0 C 59 % 1007,8 hPa 0,0 l/m 2 min 0 min 954 W/m 29,0 km/h (5 Bft) 97,83 %
07.06.2019 13:22 22,9 C 26,7 C 30,0 C 59 % 1007,9 hPa 0,0 l/m 2 min 0 min 953 W/m 25,7 km/h (4 Bft) 97,87 %
07.06.2019 13:24 22,9 C 27,2 C 30,6 C 60 % 1007,8 hPa 0,0 l/m 2 min 0 min 955 W/m 16,1 km/h (3 Bft) 97,87 %
07.06.2019 13:26 23,1 C 27,2 C 30,6 C 60 % 1007,8 hPa 0,0 l/m 2 min 0 min 956 W/m 29,0 km/h (5 Bft) 97,87 %
07.06.2019 13:28 23,1 C 26,7 C 30,0 C 58 % 1007,8 hPa 0,0 l/m 2 min 0 min 951 W/m 29,0 km/h (5 Bft) 97,87 %
07.06.2019 13:30 23,1 C 26,7 C 30,0 C 57 % 1007,8 hPa 0,0 l/m 2 min 0 min 956 W/m 29,0 km/h (5 Bft) 95,74 %
07.06.2019 13:32 23,2 C 26,7 C 30,6 C 57 % 1007,7 hPa 0,0 l/m 2 min 0 min 980 W/m 29,0 km/h (5 Bft) 97,83 %
07.06.2019 13:34 23,2 C 26,1 C 29,4 C 58 % 1007,7 hPa 0,0 l/m 2 min 0 min 1031 W/m 32,2 km/h (5 Bft) 97,87 %
07.06.2019 13:36 23,2 C 25,6 C 27,8 C 58 % 1007,6 hPa 0,0 l/m 2 min 0 min 1032 W/m 29,0 km/h (5 Bft) 97,87 %
07.06.2019 13:38 23,2 C 27,2 C 30,6 C 60 % 1007,5 hPa 0,0 l/m 2 min 0 min 856 W/m 16,1 km/h (3 Bft) 97,87 %
07.06.2019 13:40 23,3 C 27,8 C 32,2 C 59 % 1007,6 hPa 0,0 l/m 2 min 0 min 1004 W/m 22,5 km/h (4 Bft) 97,87 %
07.06.2019 13:42 23,3 C 27,8 C 31,7 C 58 % 1007,6 hPa 0,0 l/m 2 min 0 min 988 W/m 25,7 km/h (4 Bft) 97,87 %
07.06.2019 13:44 23,3 C 26,7 C 30,6 C 57 % 1007,6 hPa 0,0 l/m 2 min 0 min 998 W/m 32,2 km/h (5 Bft) 97,83 %
07.06.2019 13:46 23,3 C 26,1 C 28,9 C 58 % 1007,4 hPa 0,0 l/m 2 min 0 min 1040 W/m 35,4 km/h (5 Bft) 97,87 %
07.06.2019 13:48 23,4 C 26,1 C 28,3 C 59 % 1007,4 hPa 0,0 l/m 2 min 0 min 1055 W/m 16,1 km/h (3 Bft) 95,74 %
07.06.2019 13:50 23,4 C 25,6 C 27,2 C 58 % 1007,3 hPa 0,0 l/m 2 min 0 min 808 W/m 32,2 km/h (5 Bft) 97,87 %
07.06.2019 13:52 23,4 C 25,6 C 27,8 C 58 % 1007,3 hPa 0,0 l/m 2 min 0 min 638 W/m 25,7 km/h (4 Bft) 97,87 %
07.06.2019 13:54 23,5 C 27,2 C 29,4 C 59 % 1007,3 hPa 0,0 l/m 2 min 0 min 651 W/m 25,7 km/h (4 Bft) 97,87 %
07.06.2019 13:56 23,6 C 27,2 C 30,0 C 59 % 1007,3 hPa 0,0 l/m 2 min 0 min 870 W/m 22,5 km/h (4 Bft) 97,83 %
07.06.2019 13:58 23,6 C 26,7 C 29,4 C 58 % 1007,3 hPa 0,0 l/m 2 min 0 min 869 W/m 38,6 km/h (5 Bft) 97,87 %
07.06.2019 14:00 23,7 C 26,1 C 28,9 C 58 % 1007,3 hPa 0,0 l/m 2 min 0 min 553 W/m 29,0 km/h (5 Bft) 97,87 %
07.06.2019 14:02 23,7 C 27,2 C 30,6 C 59 % 1007,2 hPa 0,0 l/m 2 min 0 min 875 W/m 35,4 km/h (5 Bft) 97,87 %
07.06.2019 14:04 23,8 C 28,3 C 32,2 C 59 % 1007,3 hPa 0,0 l/m 2 min 0 min 1117 W/m 16,1 km/h (3 Bft) 97,87 %
07.06.2019 14:06 23,8 C 26,7 C 30,6 C 58 % 1007,3 hPa 0,0 l/m 2 min 0 min 1056 W/m 29,0 km/h (5 Bft) 97,87 %
07.06.2019 14:08 23,9 C 27,8 C 31,1 C 59 % 1007,3 hPa 0,0 l/m 2 min 0 min 1020 W/m 35,4 km/h (5 Bft) 97,83 %
07.06.2019 14:10 23,9 C 28,3 C 32,2 C 58 % 1007,2 hPa 0,0 l/m 2 min 0 min 988 W/m 16,1 km/h (3 Bft) 97,87 %
07.06.2019 14:12 24,1 C 27,8 C 31,1 C 58 % 1007,1 hPa 0,0 l/m 2 min 0 min 967 W/m 25,7 km/h (4 Bft) 95,74 %
07.06.2019 14:14 24,1 C 28,3 C 32,2 C 59 % 1007,1 hPa 0,0 l/m 2 min 0 min 955 W/m 16,1 km/h (3 Bft) 97,87 %
07.06.2019 14:16 24,2 C 28,3 C 32,2 C 58 % 1007,0 hPa 0,0 l/m 2 min 0 min 948 W/m 25,7 km/h (4 Bft) 95,74 %
07.06.2019 14:18 24,3 C 28,9 C 33,3 C 59 % 1007,0 hPa 0,0 l/m 2 min 0 min 941 W/m 29,0 km/h (5 Bft) 100,00 %
07.06.2019 14:20 24,4 C 28,3 C 32,8 C 58 % 1006,9 hPa 0,0 l/m 2 min 0 min 939 W/m 22,5 km/h (4 Bft) 95,65 %
07.06.2019 14:22 24,5 C 28,3 C 32,2 C 56 % 1006,9 hPa 0,0 l/m 2 min 0 min 939 W/m 22,5 km/h (4 Bft) 97,87 %
07.06.2019 14:24 24,6 C 28,3 C 32,2 C 56 % 1006,8 hPa 0,0 l/m 2 min 0 min 938 W/m 25,7 km/h (4 Bft) 100,00 %
07.06.2019 14:26 24,7 C 28,3 C 32,2 C 55 % 1006,9 hPa 0,0 l/m 2 min 0 min 931 W/m 29,0 km/h (5 Bft) 97,87 %
07.06.2019 14:28 24,7 C 27,8 C 30,6 C 54 % 1006,9 hPa 0,0 l/m 2 min 0 min 930 W/m 29,0 km/h (5 Bft) 97,87 %
07.06.2019 14:30 24,8 C 28,3 C 31,1 C 54 % 1006,8 hPa 0,0 l/m 2 min 0 min 933 W/m 16,1 km/h (3 Bft) 97,87 %
07.06.2019 14:32 24,8 C 27,8 C 30,6 C 53 % 1006,8 hPa 0,0 l/m 2 min 0 min 930 W/m 29,0 km/h (5 Bft) 97,83 %
07.06.2019 14:34 24,9 C 27,8 C 31,1 C 55 % 1006,8 hPa 0,0 l/m 2 min 0 min 930 W/m 22,5 km/h (4 Bft) 95,74 %
07.06.2019 14:36 24,9 C 28,3 C 31,7 C 56 % 1006,7 hPa 0,0 l/m 2 min 0 min 927 W/m 16,1 km/h (3 Bft) 97,87 %
07.06.2019 14:38 25,0 C 27,8 C 30,6 C 55 % 1006,8 hPa 0,0 l/m 2 min 0 min 917 W/m 32,2 km/h (5 Bft) 95,74 %
07.06.2019 14:40 25,1 C 27,8 C 29,4 C 53 % 1006,7 hPa 0,0 l/m 2 min 0 min 928 W/m 29,0 km/h (5 Bft) 97,87 %
07.06.2019 14:42 25,1 C 27,8 C 27,8 C 53 % 1006,6 hPa 0,0 l/m 2 min 0 min 926 W/m 19,3 km/h (3 Bft) 97,83 %
07.06.2019 14:44 25,1 C 27,8 C 27,2 C 53 % 1006,5 hPa 0,0 l/m 2 min 0 min 937 W/m 29,0 km/h (5 Bft) 97,87 %
07.06.2019 14:46 25,1 C 28,3 C 28,3 C 53 % 1006,4 hPa 0,0 l/m 2 min 0 min 943 W/m 32,2 km/h (5 Bft) 95,74 %
07.06.2019 14:48 25,2 C 27,8 C 29,4 C 52 % 1006,5 hPa 0,0 l/m 2 min 0 min 946 W/m 32,2 km/h (5 Bft) 97,87 %
07.06.2019 14:50 25,2 C 27,8 C 30,0 C 52 % 1006,5 hPa 0,0 l/m 2 min 0 min 937 W/m 22,5 km/h (4 Bft) 93,62 %
07.06.2019 14:52 25,3 C 28,3 C 29,4 C 51 % 1006,5 hPa 0,0 l/m 2 min 0 min 967 W/m 29,0 km/h (5 Bft) 97,87 %
07.06.2019 14:54 25,3 C 27,8 C 28,9 C 51 % 1006,4 hPa 0,0 l/m 2 min 0 min 1031 W/m 35,4 km/h (5 Bft) 97,83 %
07.06.2019 14:56 25,3 C 27,8 C 27,8 C 51 % 1006,4 hPa 0,0 l/m 2 min 0 min 1083 W/m 25,7 km/h (4 Bft) 97,87 %
07.06.2019 14:58 25,4 C 27,2 C 26,7 C 52 % 1006,4 hPa 0,0 l/m 2 min 0 min 881 W/m 25,7 km/h (4 Bft) 97,87 %
07.06.2019 15:00 25,4 C 26,1 C 25,6 C 52 % 1006,4 hPa 0,0 l/m 2 min 0 min 608 W/m 35,4 km/h (5 Bft) 95,74 %
07.06.2019 15:02 25,4 C 25,6 C 25,0 C 51 % 1006,4 hPa 0,0 l/m 0 min 0 min 416 W/m 29,0 km/h (5 Bft) 97,87 %
07.06.2019 15:04 25,4 C 25,6 C 25,0 C 52 % 1006,5 hPa 0,0 l/m 0 min 0 min 333 W/m 25,7 km/h (4 Bft) 97,87 %
07.06.2019 15:06 25,3 C 25,0 C 24,4 C 51 % 1006,5 hPa 0,0 l/m 0 min 0 min 277 W/m 32,2 km/h (5 Bft) 95,65 %
07.06.2019 15:08 25,2 C 25,0 C 24,4 C 52 % 1006,4 hPa 0,0 l/m 0 min 0 min 395 W/m 25,7 km/h (4 Bft) 97,87 %
07.06.2019 15:10 25,2 C 25,6 C 24,4 C 53 % 1006,4 hPa 0,0 l/m 2 min 0 min 541 W/m 35,4 km/h (5 Bft) 97,87 %
07.06.2019 15:12 25,1 C 25,6 C 24,4 C 53 % 1006,4 hPa 0,0 l/m 2 min 0 min 542 W/m 25,7 km/h (4 Bft) 100,00 %
07.06.2019 15:14 25,1 C 25,0 C 24,4 C 54 % 1006,4 hPa 0,0 l/m 2 min 0 min 470 W/m 25,7 km/h (4 Bft) 95,74 %
07.06.2019 15:16 25,1 C 25,6 C 25,0 C 55 % 1006,4 hPa 0,0 l/m 0 min 0 min 357 W/m 19,3 km/h (3 Bft) 97,87 %
07.06.2019 15:18 25,1 C 26,1 C 25,0 C 54 % 1006,3 hPa 0,0 l/m 0 min 0 min 373 W/m 35,4 km/h (5 Bft) 95,65 %
07.06.2019 15:20 25,0 C 26,1 C 25,0 C 55 % 1006,2 hPa 0,0 l/m 0 min 0 min 346 W/m 45,1 km/h (6 Bft) 95,74 %
07.06.2019 15:22 24,9 C 25,0 C 24,4 C 55 % 1006,2 hPa 0,0 l/m 0 min 0 min 334 W/m 38,6 km/h (5 Bft) 97,87 %
07.06.2019 15:24 24,9 C 25,0 C 24,4 C 56 % 1006,2 hPa 0,0 l/m 0 min 0 min 311 W/m 32,2 km/h (5 Bft) 97,87 %
07.06.2019 15:26 24,9 C 25,0 C 24,4 C 56 % 1006,3 hPa 0,0 l/m 0 min 0 min 265 W/m 29,0 km/h (5 Bft) 93,62 %
07.06.2019 15:28 24,9 C 24,4 C 24,4 C 54 % 1006,3 hPa 0,0 l/m 0 min 0 min 234 W/m 45,1 km/h (6 Bft) 97,87 %
07.06.2019 15:30 24,9 C 24,4 C 23,9 C 53 % 1006,3 hPa 0,0 l/m 0 min 0 min 196 W/m 35,4 km/h (5 Bft) 97,83 %
07.06.2019 15:32 24,8 C 24,4 C 23,9 C 53 % 1006,3 hPa 0,0 l/m 0 min 0 min 199 W/m 32,2 km/h (5 Bft) 97,87 %
07.06.2019 15:34 24,8 C 24,4 C 23,9 C 52 % 1006,2 hPa 0,0 l/m 0 min 0 min 189 W/m 29,0 km/h (5 Bft) 97,87 %
07.06.2019 15:36 24,8 C 24,4 C 23,9 C 52 % 1006,3 hPa 0,0 l/m 0 min 0 min 186 W/m 25,7 km/h (4 Bft) 95,74 %
07.06.2019 15:38 24,8 C 24,4 C 23,9 C 52 % 1006,2 hPa 0,0 l/m 0 min 0 min 194 W/m 25,7 km/h (4 Bft) 97,87 %
07.06.2019 15:40 24,7 C 24,4 C 23,9 C 53 % 1006,2 hPa 0,0 l/m 0 min 0 min 188 W/m 29,0 km/h (5 Bft) 95,74 %
07.06.2019 15:42 24,7 C 24,4 C 23,9 C 53 % 1006,2 hPa 0,0 l/m 0 min 0 min 189 W/m 29,0 km/h (5 Bft) 97,83 %
07.06.2019 15:44 24,7 C 24,4 C 23,9 C 53 % 1006,2 hPa 0,0 l/m 0 min 0 min 202 W/m 29,0 km/h (5 Bft) 97,87 %
07.06.2019 15:46 24,7 C 24,4 C 23,9 C 53 % 1006,2 hPa 0,0 l/m 0 min 0 min 234 W/m 22,5 km/h (4 Bft) 97,87 %
07.06.2019 15:48 24,7 C 24,4 C 23,9 C 53 % 1006,1 hPa 0,0 l/m 0 min 0 min 225 W/m 25,7 km/h (4 Bft) 97,87 %
07.06.2019 15:50 24,6 C 23,9 C 23,9 C 53 % 1006,1 hPa 0,0 l/m 0 min 0 min 199 W/m 25,7 km/h (4 Bft) 97,87 %
07.06.2019 15:52 24,6 C 23,9 C 23,3 C 53 % 1006,1 hPa 0,0 l/m 0 min 0 min 170 W/m 45,1 km/h (6 Bft) 97,87 %
07.06.2019 15:54 24,6 C 23,9 C 23,3 C 53 % 1006,0 hPa 0,0 l/m 0 min 0 min 168 W/m 29,0 km/h (5 Bft) 97,83 %
07.06.2019 15:56 24,5 C 23,9 C 23,3 C 53 % 1006,1 hPa 0,0 l/m 0 min 0 min 139 W/m 29,0 km/h (5 Bft) 97,87 %
07.06.2019 15:58 24,4 C 23,9 C 22,8 C 54 % 1006,1 hPa 0,0 l/m 0 min 0 min 138 W/m 25,7 km/h (4 Bft) 97,87 %
07.06.2019 16:00 24,4 C 24,4 C 23,3 C 54 % 1006,1 hPa 0,0 l/m 0 min 0 min 212 W/m 29,0 km/h (5 Bft) 97,87 %
07.06.2019 16:02 24,4 C 25,0 C 23,9 C 55 % 1006,1 hPa 0,0 l/m 2 min 0 min 434 W/m 22,5 km/h (4 Bft) 97,87 %
07.06.2019 16:04 24,4 C 25,0 C 23,9 C 55 % 1006,1 hPa 0,0 l/m 0 min 0 min 346 W/m 29,0 km/h (5 Bft) 97,83 %
07.06.2019 16:06 24,4 C 25,0 C 23,9 C 54 % 1006,1 hPa 0,0 l/m 0 min 0 min 304 W/m 41,8 km/h (6 Bft) 95,74 %
07.06.2019 16:08 24,4 C 25,0 C 23,9 C 55 % 1006,1 hPa 0,0 l/m 0 min 0 min 315 W/m 29,0 km/h (5 Bft) 100,00 %
07.06.2019 16:10 24,5 C 25,0 C 23,9 C 55 % 1006,1 hPa 0,0 l/m 0 min 0 min 324 W/m 29,0 km/h (5 Bft) 100,00 %
07.06.2019 16:12 24,5 C 25,0 C 23,9 C 55 % 1006,2 hPa 0,0 l/m 0 min 0 min 313 W/m 25,7 km/h (4 Bft) 97,87 %
07.06.2019 16:14 24,6 C 25,0 C 23,9 C 55 % 1006,1 hPa 0,0 l/m 0 min 0 min 260 W/m 25,7 km/h (4 Bft) 100,00 %
07.06.2019 16:16 24,6 C 24,4 C 23,9 C 55 % 1006,1 hPa 0,0 l/m 0 min 0 min 247 W/m 22,5 km/h (4 Bft) 97,83 %
07.06.2019 16:18 24,6 C 24,4 C 23,9 C 55 % 1006,1 hPa 0,0 l/m 0 min 0 min 229 W/m 22,5 km/h (4 Bft) 97,87 %
07.06.2019 16:20 24,6 C 24,4 C 23,9 C 55 % 1006,2 hPa 0,0 l/m 0 min 0 min 227 W/m 19,3 km/h (3 Bft) 97,87 %
07.06.2019 16:22 24,6 C 24,4 C 23,9 C 55 % 1006,1 hPa 0,0 l/m 0 min 0 min 243 W/m 29,0 km/h (5 Bft) 97,87 %
07.06.2019 16:24 24,6 C 24,4 C 23,3 C 55 % 1006,1 hPa 0,0 l/m 0 min 0 min 255 W/m 25,7 km/h (4 Bft) 100,00 %
07.06.2019 16:26 24,5 C 24,4 C 23,3 C 55 % 1006,1 hPa 0,0 l/m 0 min 0 min 276 W/m 32,2 km/h (5 Bft) 100,00 %
07.06.2019 16:28 24,4 C 23,9 C 23,3 C 55 % 1006,2 hPa 0,0 l/m 0 min 0 min 319 W/m 32,2 km/h (5 Bft) 97,83 %
07.06.2019 16:30 24,4 C 24,4 C 23,3 C 56 % 1006,2 hPa 0,0 l/m 2 min 0 min 431 W/m 16,1 km/h (3 Bft) 97,87 %
07.06.2019 16:32 24,4 C 24,4 C 23,9 C 56 % 1006,2 hPa 0,0 l/m 2 min 0 min 427 W/m 22,5 km/h (4 Bft) 97,87 %
07.06.2019 16:34 24,4 C 24,4 C 23,9 C 56 % 1006,2 hPa 0,0 l/m 2 min 0 min 410 W/m 35,4 km/h (5 Bft) 97,87 %
07.06.2019 16:36 24,4 C 24,4 C 23,9 C 57 % 1006,2 hPa 0,0 l/m 0 min 0 min 298 W/m 16,1 km/h (3 Bft) 97,87 %
07.06.2019 16:38 24,4 C 24,4 C 23,9 C 57 % 1006,2 hPa 0,0 l/m 2 min 0 min 372 W/m 25,7 km/h (4 Bft) 97,87 %
07.06.2019 16:40 24,4 C 24,4 C 23,3 C 57 % 1006,2 hPa 0,0 l/m 0 min 0 min 241 W/m 22,5 km/h (4 Bft) 97,87 %
07.06.2019 16:42 24,4 C 23,9 C 23,3 C 57 % 1006,2 hPa 0,0 l/m 0 min 0 min 195 W/m 29,0 km/h (5 Bft) 97,83 %
07.06.2019 16:44 24,3 C 23,9 C 23,3 C 57 % 1006,2 hPa 0,0 l/m 0 min 0 min 191 W/m 25,7 km/h (4 Bft) 97,87 %
07.06.2019 16:46 24,3 C 23,9 C 23,3 C 57 % 1006,1 hPa 0,0 l/m 0 min 0 min 207 W/m 25,7 km/h (4 Bft) 97,87 %
07.06.2019 16:48 24,3 C 23,9 C 23,3 C 57 % 1006,2 hPa 0,0 l/m 0 min 0 min 189 W/m 25,7 km/h (4 Bft) 97,87 %
07.06.2019 16:50 24,2 C 23,9 C 23,3 C 57 % 1006,2 hPa 0,0 l/m 0 min 0 min 165 W/m 22,5 km/h (4 Bft) 97,87 %
07.06.2019 16:52 24,2 C 23,9 C 23,3 C 57 % 1006,2 hPa 0,0 l/m 0 min 0 min 170 W/m 25,7 km/h (4 Bft) 97,83 %
07.06.2019 16:54 24,2 C 23,9 C 23,3 C 57 % 1006,2 hPa 0,0 l/m 0 min 0 min 171 W/m 22,5 km/h (4 Bft) 97,87 %
07.06.2019 16:56 24,2 C 23,9 C 23,3 C 57 % 1006,2 hPa 0,0 l/m 0 min 0 min 167 W/m 22,5 km/h (4 Bft) 95,74 %
07.06.2019 16:58 24,1 C 23,3 C 22,8 C 58 % 1006,3 hPa 0,0 l/m 0 min 0 min 114 W/m 19,3 km/h (3 Bft) 95,74 %
07.06.2019 17:00 24,1 C 23,3 C 22,8 C 57 % 1006,3 hPa 0,0 l/m 0 min 0 min 76 W/m 19,3 km/h (3 Bft) 95,74 %
07.06.2019 17:02 24,1 C 23,3 C 22,8 C 58 % 1006,3 hPa 0,0 l/m 0 min 0 min 50 W/m 9,7 km/h (2 Bft) 93,62 %
07.06.2019 17:04 24,1 C 23,3 C 22,8 C 58 % 1006,3 hPa 0,0 l/m 0 min 0 min 36 W/m 22,5 km/h (4 Bft) 93,48 %
07.06.2019 17:06 24,0 C 22,8 C 22,2 C 58 % 1006,6 hPa 0,0 l/m 0 min 0 min 26 W/m 16,1 km/h (3 Bft) 95,74 %
07.06.2019 17:08 24,0 C 22,8 C 22,2 C 58 % 1006,5 hPa 0,0 l/m 0 min 0 min 25 W/m 19,3 km/h (3 Bft) 95,74 %
07.06.2019 17:10 23,9 C 22,2 C 21,7 C 58 % 1006,6 hPa 0,0 l/m 0 min 2 min 25 W/m 38,6 km/h (5 Bft) 93,62 %
07.06.2019 17:12 23,8 C 21,7 C 21,1 C 58 % 1006,8 hPa 0,0 l/m 0 min 2 min 29 W/m 41,8 km/h (6 Bft) 95,74 %
07.06.2019 17:14 23,7 C 21,1 C 19,4 C 59 % 1007,3 hPa 0,0 l/m 0 min 2 min 42 W/m 45,1 km/h (6 Bft) 95,74 %
07.06.2019 17:16 23,5 C 20,0 C 18,9 C 59 % 1007,2 hPa 0,0 l/m 0 min 2 min 77 W/m 38,6 km/h (5 Bft) 95,65 %
07.06.2019 17:18 23,2 C 19,4 C 18,9 C 60 % 1007,4 hPa 0,0 l/m 0 min 2 min 124 W/m 32,2 km/h (5 Bft) 95,74 %
07.06.2019 17:20 23,1 C 17,8 C 17,2 C 62 % 1007,4 hPa 0,0 l/m 0 min 2 min 144 W/m 29,0 km/h (5 Bft) 95,74 %
07.06.2019 17:22 22,8 C 17,8 C 16,7 C 63 % 1007,4 hPa 0,0 l/m 0 min 2 min 137 W/m 25,7 km/h (4 Bft) 95,74 %
07.06.2019 17:24 22,6 C 18,3 C 17,2 C 63 % 1007,3 hPa 0,0 l/m 0 min 2 min 106 W/m 32,2 km/h (5 Bft) 95,74 %
07.06.2019 17:26 22,3 C 17,8 C 17,8 C 64 % 1007,3 hPa 0,0 l/m 0 min 2 min 65 W/m 19,3 km/h (3 Bft) 93,48 %
07.06.2019 17:28 22,2 C 18,3 C 18,3 C 63 % 1007,2 hPa 0,0 l/m 0 min 0 min 40 W/m 22,5 km/h (4 Bft) 95,74 %
07.06.2019 17:30 22,0 C 17,8 C 18,3 C 64 % 1007,2 hPa 0,0 l/m 0 min 2 min 30 W/m 22,5 km/h (4 Bft) 95,74 %
07.06.2019 17:32 21,8 C 17,2 C 17,8 C 65 % 1007,4 hPa 0,0 l/m 0 min 2 min 26 W/m 22,5 km/h (4 Bft) 95,74 %
07.06.2019 17:34 21,7 C 16,7 C 17,2 C 65 % 1007,6 hPa 0,0 l/m 0 min 2 min 23 W/m 16,1 km/h (3 Bft) 97,87 %
07.06.2019 17:36 21,6 C 16,1 C 16,1 C 66 % 1007,7 hPa 0,0 l/m 0 min 2 min 23 W/m 22,5 km/h (4 Bft) 93,62 %
07.06.2019 17:38 21,4 C 15,6 C 15,6 C 68 % 1007,7 hPa 0,0 l/m 0 min 2 min 31 W/m 12,9 km/h (3 Bft) 97,83 %
07.06.2019 17:40 21,3 C 15,0 C 15,0 C 69 % 1007,9 hPa 0,2 l/m 0 min 2 min 50 W/m 19,3 km/h (3 Bft) 97,87 %
07.06.2019 17:42 21,2 C 14,4 C 15,0 C 70 % 1008,0 hPa 0,2 l/m 0 min 2 min 81 W/m 22,5 km/h (4 Bft) 93,62 %
07.06.2019 17:44 21,0 C 14,4 C 15,0 C 72 % 1008,0 hPa 0,0 l/m 0 min 2 min 73 W/m 16,1 km/h (3 Bft) 97,87 %
07.06.2019 17:46 20,8 C 15,0 C 15,0 C 73 % 1008,2 hPa 0,0 l/m 0 min 2 min 38 W/m 22,5 km/h (4 Bft) 97,87 %
07.06.2019 17:48 20,6 C 15,0 C 15,0 C 74 % 1008,4 hPa 0,0 l/m 0 min 2 min 32 W/m 22,5 km/h (4 Bft) 100,00 %
07.06.2019 17:50 20,3 C 15,6 C 15,0 C 74 % 1008,7 hPa 0,0 l/m 0 min 2 min 74 W/m 22,5 km/h (4 Bft) 100,00 %
07.06.2019 17:52 20,1 C 15,0 C 15,0 C 75 % 1008,8 hPa 0,0 l/m 0 min 2 min 107 W/m 32,2 km/h (5 Bft) 97,87 %
07.06.2019 17:54 19,7 C 15,0 C 15,0 C 76 % 1009,2 hPa 0,2 l/m 0 min 2 min 106 W/m 51,5 km/h (7 Bft) 97,87 %
07.06.2019 17:56 19,2 C 15,0 C 15,0 C 77 % 1009,2 hPa 0,0 l/m 0 min 2 min 142 W/m 45,1 km/h (6 Bft) 100,00 %
07.06.2019 17:58 18,9 C 15,0 C 15,0 C 79 % 1009,1 hPa 0,0 l/m 0 min 2 min 149 W/m 22,5 km/h (4 Bft) 100,00 %
07.06.2019 18:00 18,7 C 14,4 C 14,4 C 79 % 1009,1 hPa 0,0 l/m 0 min 2 min 111 W/m 16,1 km/h (3 Bft) 100,00 %
07.06.2019 18:02 18,5 C 15,0 C 14,4 C 79 % 1009,3 hPa 0,0 l/m 0 min 2 min 91 W/m 22,5 km/h (4 Bft) 97,96 %
07.06.2019 18:04 18,3 C 14,4 C 14,4 C 79 % 1009,3 hPa 0,0 l/m 0 min 2 min 74 W/m 22,5 km/h (4 Bft) 100,00 %
07.06.2019 18:07 17,9 C 14,4 C 14,4 C 79 % 1009,6 hPa 0,0 l/m 0 min 3 min 52 W/m 19,3 km/h (3 Bft) 100,00 %
07.06.2019 18:08 17,8 C 14,4 C 14,4 C 79 % 1009,6 hPa 0,0 l/m 0 min 1 min 53 W/m 16,1 km/h (3 Bft) 100,00 %
07.06.2019 18:10 17,6 C 14,4 C 14,4 C 80 % 1009,6 hPa 0,0 l/m 0 min 2 min 54 W/m 19,3 km/h (3 Bft) 100,00 %
07.06.2019 18:12 17,4 C 14,4 C 14,4 C 79 % 1009,7 hPa 0,0 l/m 0 min 2 min 59 W/m 29,0 km/h (5 Bft) 100,00 %
07.06.2019 18:14 17,3 C 14,4 C 14,4 C 78 % 1009,6 hPa 0,0 l/m 0 min 2 min 102 W/m 22,5 km/h (4 Bft) 100,00 %
07.06.2019 18:16 17,2 C 15,0 C 14,4 C 79 % 1009,6 hPa 0,0 l/m 0 min 2 min 119 W/m 19,3 km/h (3 Bft) 100,00 %
07.06.2019 18:18 17,1 C 14,4 C 14,4 C 79 % 1009,5 hPa 0,0 l/m 0 min 2 min 153 W/m 19,3 km/h (3 Bft) 100,00 %
07.06.2019 18:20 17,0 C 15,0 C 14,4 C 78 % 1009,4 hPa 0,0 l/m 0 min 2 min 171 W/m 22,5 km/h (4 Bft) 100,00 %
07.06.2019 18:22 17,0 C 15,0 C 14,4 C 77 % 1009,7 hPa 0,0 l/m 0 min 2 min 151 W/m 22,5 km/h (4 Bft) 97,87 %
07.06.2019 18:24 16,9 C 14,4 C 14,4 C 77 % 1009,8 hPa 0,0 l/m 0 min 2 min 93 W/m 25,7 km/h (4 Bft) 100,00 %
07.06.2019 18:26 16,9 C 14,4 C 14,4 C 76 % 1009,7 hPa 0,0 l/m 0 min 2 min 75 W/m 22,5 km/h (4 Bft) 100,00 %
07.06.2019 18:28 16,9 C 14,4 C 14,4 C 76 % 1009,7 hPa 0,0 l/m 0 min 0 min 86 W/m 19,3 km/h (3 Bft) 100,00 %
07.06.2019 18:30 16,9 C 14,4 C 13,9 C 75 % 1009,5 hPa 0,0 l/m 0 min 0 min 95 W/m 19,3 km/h (3 Bft) 100,00 %
07.06.2019 18:32 16,9 C 14,4 C 13,9 C 75 % 1009,8 hPa 0,0 l/m 0 min 0 min 59 W/m 25,7 km/h (4 Bft) 100,00 %
07.06.2019 18:34 16,8 C 14,4 C 13,9 C 73 % 1010,0 hPa 0,0 l/m 0 min 0 min 48 W/m 51,5 km/h (7 Bft) 100,00 %
07.06.2019 18:36 16,8 C 14,4 C 13,9 C 72 % 1010,1 hPa 0,0 l/m 0 min 0 min 47 W/m 32,2 km/h (5 Bft) 100,00 %
07.06.2019 18:38 16,8 C 14,4 C 13,9 C 72 % 1009,8 hPa 0,0 l/m 0 min 0 min 53 W/m 41,8 km/h (6 Bft) 97,87 %
07.06.2019 18:40 16,8 C 14,4 C 13,9 C 71 % 1009,9 hPa 0,0 l/m 0 min 0 min 52 W/m 29,0 km/h (5 Bft) 95,74 %
07.06.2019 18:42 16,7 C 14,4 C 13,9 C 71 % 1010,0 hPa 0,0 l/m 0 min 0 min 60 W/m 19,3 km/h (3 Bft) 97,87 %
07.06.2019 18:44 16,7 C 14,4 C 13,9 C 71 % 1009,8 hPa 0,0 l/m 0 min 0 min 63 W/m 22,5 km/h (4 Bft) 95,74 %
07.06.2019 18:46 16,7 C 14,4 C 13,9 C 70 % 1009,9 hPa 0,0 l/m 0 min 0 min 66 W/m 19,3 km/h (3 Bft) 97,87 %
07.06.2019 18:48 16,7 C 14,4 C 13,9 C 71 % 1009,9 hPa 0,0 l/m 0 min 0 min 72 W/m 22,5 km/h (4 Bft) 97,83 %
07.06.2019 18:50 16,7 C 15,0 C 13,9 C 71 % 1009,9 hPa 0,0 l/m 0 min 0 min 70 W/m 32,2 km/h (5 Bft) 97,87 %
07.06.2019 18:52 16,7 C 15,6 C 13,9 C 70 % 1010,0 hPa 0,0 l/m 0 min 0 min 68 W/m 32,2 km/h (5 Bft) 97,87 %
07.06.2019 18:54 16,7 C 16,1 C 13,9 C 70 % 1010,1 hPa 0,0 l/m 0 min 0 min 71 W/m 38,6 km/h (5 Bft) 97,87 %
07.06.2019 18:56 16,7 C 16,1 C 13,9 C 70 % 1009,9 hPa 0,0 l/m 0 min 0 min 75 W/m 29,0 km/h (5 Bft) 97,87 %
07.06.2019 18:58 16,7 C 16,1 C 13,9 C 70 % 1010,0 hPa 0,0 l/m 0 min 0 min 72 W/m 25,7 km/h (4 Bft) 97,87 %
07.06.2019 19:00 16,7 C 16,1 C 13,9 C 70 % 1009,9 hPa 0,0 l/m 0 min 0 min 77 W/m 19,3 km/h (3 Bft) 97,83 %
07.06.2019 19:02 16,7 C 16,1 C 14,4 C 69 % 1009,9 hPa 0,0 l/m 0 min 0 min 74 W/m 41,8 km/h (6 Bft) 95,74 %
07.06.2019 19:04 16,7 C 16,1 C 15,6 C 69 % 1009,7 hPa 0,0 l/m 0 min 0 min 87 W/m 29,0 km/h (5 Bft) 97,87 %
07.06.2019 19:06 16,7 C 16,1 C 15,6 C 69 % 1009,3 hPa 0,0 l/m 0 min 0 min 110 W/m 25,7 km/h (4 Bft) 97,87 %
07.06.2019 19:08 16,7 C 16,1 C 16,1 C 69 % 1009,4 hPa 0,0 l/m 0 min 0 min 124 W/m 25,7 km/h (4 Bft) 97,87 %
07.06.2019 19:10 16,7 C 16,1 C 16,1 C 68 % 1009,2 hPa 0,0 l/m 0 min 0 min 125 W/m 25,7 km/h (4 Bft) 97,87 %
07.06.2019 19:12 16,7 C 16,1 C 16,1 C 68 % 1009,1 hPa 0,0 l/m 0 min 0 min 121 W/m 25,7 km/h (4 Bft) 95,65 %
07.06.2019 19:14 16,7 C 16,1 C 16,1 C 68 % 1009,1 hPa 0,0 l/m 0 min 0 min 115 W/m 25,7 km/h (4 Bft) 95,74 %
07.06.2019 19:16 16,7 C 16,1 C 16,1 C 68 % 1009,3 hPa 0,0 l/m 0 min 0 min 114 W/m 22,5 km/h (4 Bft) 95,74 %
07.06.2019 19:18 16,7 C 16,1 C 16,1 C 68 % 1009,3 hPa 0,0 l/m 0 min 0 min 114 W/m 25,7 km/h (4 Bft) 97,87 %
07.06.2019 19:20 16,7 C 16,1 C 16,1 C 68 % 1009,3 hPa 0,0 l/m 0 min 0 min 114 W/m 25,7 km/h (4 Bft) 95,74 %
07.06.2019 19:22 16,7 C 16,1 C 16,1 C 68 % 1009,5 hPa 0,0 l/m 0 min 0 min 103 W/m 22,5 km/h (4 Bft) 93,48 %
07.06.2019 19:24 16,7 C 16,1 C 15,6 C 68 % 1009,7 hPa 0,0 l/m 0 min 0 min 79 W/m 22,5 km/h (4 Bft) 95,74 %
07.06.2019 19:26 16,7 C 16,1 C 15,6 C 68 % 1009,7 hPa 0,0 l/m 0 min 0 min 58 W/m 16,1 km/h (3 Bft) 97,87 %
07.06.2019 19:28 16,7 C 16,1 C 15,6 C 68 % 1009,6 hPa 0,0 l/m 0 min 0 min 50 W/m 16,1 km/h (3 Bft) 97,87 %
07.06.2019 19:30 16,7 C 16,1 C 15,6 C 68 % 1009,7 hPa 0,0 l/m 0 min 0 min 45 W/m 25,7 km/h (4 Bft) 95,74 %
07.06.2019 19:32 16,7 C 16,1 C 15,6 C 68 % 1009,6 hPa 0,0 l/m 0 min 0 min 46 W/m 29,0 km/h (5 Bft) 93,62 %
07.06.2019 19:34 16,7 C 15,6 C 15,6 C 68 % 1009,5 hPa 0,0 l/m 0 min 0 min 44 W/m 16,1 km/h (3 Bft) 95,65 %
07.06.2019 19:36 16,7 C 15,6 C 15,6 C 68 % 1009,6 hPa 0,0 l/m 0 min 2 min 38 W/m 35,4 km/h (5 Bft) 95,74 %
07.06.2019 19:38 16,6 C 15,6 C 15,0 C 68 % 1009,5 hPa 0,0 l/m 0 min 0 min 31 W/m 16,1 km/h (3 Bft) 95,74 %
07.06.2019 19:40 16,6 C 15,6 C 15,0 C 68 % 1009,5 hPa 0,0 l/m 0 min 2 min 22 W/m 19,3 km/h (3 Bft) 93,62 %
07.06.2019 19:42 16,6 C 15,0 C 14,4 C 69 % 1009,4 hPa 0,0 l/m 0 min 2 min 18 W/m 25,7 km/h (4 Bft) 97,87 %
07.06.2019 19:44 16,6 C 14,4 C 13,3 C 70 % 1009,1 hPa 0,0 l/m 0 min 2 min 14 W/m 25,7 km/h (4 Bft) 97,87 %
07.06.2019 19:46 16,5 C 13,3 C 12,8 C 71 % 1008,9 hPa 0,0 l/m 0 min 2 min 12 W/m 19,3 km/h (3 Bft) 93,48 %
07.06.2019 19:48 16,5 C 12,2 C 12,2 C 71 % 1008,8 hPa 0,0 l/m 0 min 2 min 12 W/m 19,3 km/h (3 Bft) 93,62 %
07.06.2019 19:50 16,4 C 11,7 C 11,7 C 72 % 1008,7 hPa 0,2 l/m 0 min 2 min 12 W/m 25,7 km/h (4 Bft) 95,74 %
07.06.2019 19:52 16,4 C 11,7 C 11,7 C 74 % 1008,6 hPa 0,0 l/m 0 min 2 min 12 W/m 19,3 km/h (3 Bft) 93,62 %
07.06.2019 19:54 16,3 C 11,7 C 11,7 C 75 % 1008,6 hPa 0,0 l/m 0 min 2 min 16 W/m 25,7 km/h (4 Bft) 95,74 %
07.06.2019 19:56 16,2 C 11,7 C 11,7 C 76 % 1008,9 hPa 0,0 l/m 0 min 2 min 20 W/m 16,1 km/h (3 Bft) 93,62 %
07.06.2019 19:58 16,1 C 12,2 C 11,7 C 76 % 1008,7 hPa 0,0 l/m 0 min 2 min 25 W/m 22,5 km/h (4 Bft) 93,48 %
07.06.2019 20:00 15,9 C 12,2 C 11,7 C 77 % 1008,7 hPa 0,0 l/m 0 min 0 min 26 W/m 12,9 km/h (3 Bft) 95,74 %
07.06.2019 20:02 15,9 C 12,2 C 11,7 C 78 % 1008,7 hPa 0,0 l/m 0 min 0 min 22 W/m 16,1 km/h (3 Bft) 93,62 %
07.06.2019 20:04 15,8 C 12,2 C 11,7 C 78 % 1008,5 hPa 0,0 l/m 0 min 0 min 21 W/m 9,7 km/h (2 Bft) 93,62 %
07.06.2019 20:06 15,7 C 12,2 C 12,2 C 79 % 1009,1 hPa 0,0 l/m 0 min 0 min 25 W/m 12,9 km/h (3 Bft) 95,74 %
07.06.2019 20:08 15,6 C 12,2 C 12,2 C 79 % 1009,2 hPa 0,0 l/m 0 min 0 min 24 W/m 9,7 km/h (2 Bft) 95,74 %
07.06.2019 20:10 15,5 C 12,2 C 12,2 C 80 % 1009,1 hPa 0,0 l/m 0 min 0 min 23 W/m 9,7 km/h (2 Bft) 95,65 %
07.06.2019 20:12 15,4 C 12,2 C 12,2 C 80 % 1008,9 hPa 0,0 l/m 0 min 0 min 19 W/m 6,4 km/h (2 Bft) 95,74 %
07.06.2019 20:14 15,4 C 12,2 C 12,2 C 80 % 1009,1 hPa 0,0 l/m 0 min 0 min 16 W/m 6,4 km/h (2 Bft) 93,62 %
07.06.2019 20:16 15,3 C 12,8 C 12,2 C 80 % 1008,9 hPa 0,0 l/m 0 min 0 min 14 W/m 6,4 km/h (2 Bft) 95,74 %
07.06.2019 20:18 15,3 C 12,8 C 12,2 C 80 % 1008,9 hPa 0,0 l/m 0 min 0 min 14 W/m 12,9 km/h (3 Bft) 95,74 %
07.06.2019 20:20 15,2 C 12,8 C 12,2 C 81 % 1009,2 hPa 0,0 l/m 0 min 0 min 16 W/m 9,7 km/h (2 Bft) 97,87 %
07.06.2019 20:22 15,2 C 12,8 C 12,2 C 81 % 1009,3 hPa 0,0 l/m 0 min 0 min 19 W/m 12,9 km/h (3 Bft) 95,65 %
07.06.2019 20:24 15,1 C 12,8 C 12,2 C 81 % 1009,4 hPa 0,0 l/m 0 min 0 min 18 W/m 9,7 km/h (2 Bft) 97,87 %
07.06.2019 20:26 15,1 C 12,8 C 12,2 C 81 % 1009,3 hPa 0,0 l/m 0 min 0 min 18 W/m 16,1 km/h (3 Bft) 97,87 %
07.06.2019 20:28 15,1 C 12,8 C 12,2 C 81 % 1009,5 hPa 0,0 l/m 0 min 0 min 18 W/m 6,4 km/h (2 Bft) 97,87 %
07.06.2019 20:30 15,0 C 12,8 C 12,2 C 82 % 1009,4 hPa 0,0 l/m 0 min 0 min 18 W/m 6,4 km/h (2 Bft) 97,87 %
07.06.2019 20:32 14,9 C 12,8 C 12,2 C 82 % 1009,4 hPa 0,0 l/m 0 min 0 min 18 W/m 9,7 km/h (2 Bft) 95,65 %
07.06.2019 20:34 14,9 C 12,8 C 12,2 C 82 % 1009,4 hPa 0,0 l/m 0 min 0 min 20 W/m 9,7 km/h (2 Bft) 97,92 %
07.06.2019 20:36 14,9 C 12,8 C 12,8 C 83 % 1009,4 hPa 0,0 l/m 0 min 0 min 19 W/m 16,1 km/h (3 Bft) 95,65 %
07.06.2019 20:38 14,8 C 12,8 C 12,8 C 83 % 1009,4 hPa 0,0 l/m 0 min 0 min 16 W/m 12,9 km/h (3 Bft) 97,87 %
07.06.2019 20:40 14,8 C 12,8 C 12,8 C 82 % 1009,4 hPa 0,0 l/m 0 min 0 min 18 W/m 9,7 km/h (2 Bft) 100,00 %
07.06.2019 20:42 14,8 C 12,8 C 12,8 C 83 % 1009,4 hPa 0,0 l/m 0 min 0 min 17 W/m 9,7 km/h (2 Bft) 95,74 %
07.06.2019 20:44 14,8 C 12,8 C 12,8 C 83 % 1009,3 hPa 0,0 l/m 0 min 0 min 16 W/m 6,4 km/h (2 Bft) 100,00 %
07.06.2019 20:46 14,8 C 12,8 C 12,8 C 83 % 1009,3 hPa 0,0 l/m 0 min 0 min 14 W/m 9,7 km/h (2 Bft) 100,00 %
07.06.2019 20:48 14,8 C 12,8 C 12,8 C 83 % 1009,3 hPa 0,0 l/m 0 min 0 min 12 W/m 9,7 km/h (2 Bft) 100,00 %
07.06.2019 20:50 14,7 C 12,8 C 12,8 C 82 % 1009,3 hPa 0,0 l/m 0 min 0 min 11 W/m 16,1 km/h (3 Bft) 100,00 %
07.06.2019 20:52 14,7 C 12,8 C 12,8 C 82 % 1009,3 hPa 0,0 l/m 0 min 0 min 11 W/m 9,7 km/h (2 Bft) 97,87 %
07.06.2019 20:54 14,7 C 12,8 C 12,8 C 82 % 1009,3 hPa 0,0 l/m 0 min 0 min 10 W/m 9,7 km/h (2 Bft) 100,00 %
07.06.2019 20:56 14,7 C 12,8 C 12,8 C 82 % 1009,3 hPa 0,0 l/m 0 min 0 min 9 W/m 19,3 km/h (3 Bft) 100,00 %
07.06.2019 20:58 14,7 C 12,8 C 12,8 C 81 % 1009,3 hPa 0,0 l/m 0 min 0 min 8 W/m 16,1 km/h (3 Bft) 100,00 %
07.06.2019 21:00 14,7 C 12,8 C 12,8 C 81 % 1009,3 hPa 0,0 l/m 0 min 0 min 8 W/m 12,9 km/h (3 Bft) 100,00 %
07.06.2019 21:02 14,7 C 12,8 C 12,8 C 80 % 1009,1 hPa 0,0 l/m 0 min 0 min 8 W/m 12,9 km/h (3 Bft) 97,87 %
07.06.2019 21:04 14,7 C 12,8 C 12,8 C 80 % 1009,0 hPa 0,0 l/m 0 min 0 min 7 W/m 9,7 km/h (2 Bft) 100,00 %
07.06.2019 21:06 14,7 C 12,8 C 12,8 C 80 % 1008,6 hPa 0,0 l/m 0 min 0 min 9 W/m 12,9 km/h (3 Bft) 100,00 %
07.06.2019 21:08 14,7 C 12,8 C 12,8 C 80 % 1008,6 hPa 0,0 l/m 0 min 0 min 9 W/m 9,7 km/h (2 Bft) 100,00 %
07.06.2019 21:10 14,8 C 12,8 C 12,8 C 80 % 1008,5 hPa 0,0 l/m 0 min 0 min 12 W/m 3,2 km/h (1 Bft) 100,00 %
07.06.2019 21:12 14,8 C 12,8 C 12,8 C 80 % 1008,4 hPa 0,0 l/m 0 min 0 min 16 W/m 3,2 km/h (1 Bft) 100,00 %
07.06.2019 21:14 14,8 C 12,8 C 12,8 C 80 % 1008,7 hPa 0,0 l/m 0 min 0 min 19 W/m 6,4 km/h (2 Bft) 97,87 %
07.06.2019 21:16 14,8 C 12,8 C 12,8 C 80 % 1009,0 hPa 0,0 l/m 0 min 0 min 20 W/m 9,7 km/h (2 Bft) 97,87 %
07.06.2019 21:18 14,8 C 12,8 C 12,8 C 80 % 1008,8 hPa 0,0 l/m 0 min 0 min 18 W/m 6,4 km/h (2 Bft) 97,87 %
07.06.2019 21:20 14,8 C 12,8 C 12,8 C 80 % 1008,9 hPa 0,0 l/m 0 min 0 min 16 W/m 6,4 km/h (2 Bft) 100,00 %
07.06.2019 21:22 14,8 C 12,8 C 12,8 C 80 % 1009,2 hPa 0,0 l/m 0 min 0 min 13 W/m 9,7 km/h (2 Bft) 100,00 %
07.06.2019 21:24 14,8 C 12,8 C 12,8 C 80 % 1009,1 hPa 0,0 l/m 0 min 0 min 13 W/m 6,4 km/h (2 Bft) 100,00 %
07.06.2019 21:26 14,8 C 12,8 C 12,8 C 79 % 1009,2 hPa 0,0 l/m 0 min 0 min 14 W/m 16,1 km/h (3 Bft) 100,00 %
07.06.2019 21:28 14,8 C 12,8 C 13,3 C 79 % 1009,3 hPa 0,0 l/m 0 min 0 min 12 W/m 16,1 km/h (3 Bft) 100,00 %
07.06.2019 21:30 14,8 C 12,8 C 13,3 C 79 % 1009,3 hPa 0,0 l/m 0 min 0 min 14 W/m 9,7 km/h (2 Bft) 100,00 %
07.06.2019 21:32 14,8 C 12,8 C 13,3 C 78 % 1009,4 hPa 0,0 l/m 0 min 0 min 15 W/m 19,3 km/h (3 Bft) 100,00 %
07.06.2019 21:34 14,8 C 12,8 C 13,3 C 78 % 1009,3 hPa 0,0 l/m 0 min 0 min 11 W/m 12,9 km/h (3 Bft) 100,00 %
07.06.2019 21:36 14,8 C 12,8 C 13,3 C 78 % 1009,3 hPa 0,0 l/m 0 min 0 min 9 W/m 12,9 km/h (3 Bft) 100,00 %
07.06.2019 21:38 14,8 C 12,8 C 13,3 C 77 % 1009,2 hPa 0,0 l/m 0 min 0 min 8 W/m 12,9 km/h (3 Bft) 100,00 %
07.06.2019 21:40 14,8 C 12,8 C 13,3 C 77 % 1009,2 hPa 0,0 l/m 0 min 0 min 7 W/m 9,7 km/h (2 Bft) 100,00 %
07.06.2019 21:42 14,8 C 12,8 C 13,3 C 77 % 1009,2 hPa 0,0 l/m 0 min 0 min 7 W/m 9,7 km/h (2 Bft) 100,00 %
07.06.2019 21:44 14,8 C 12,8 C 13,3 C 77 % 1009,2 hPa 0,0 l/m 0 min 0 min 6 W/m 6,4 km/h (2 Bft) 100,00 %
07.06.2019 21:46 14,8 C 12,8 C 13,3 C 78 % 1009,3 hPa 0,0 l/m 0 min 0 min 5 W/m 12,9 km/h (3 Bft) 97,87 %
07.06.2019 21:48 14,8 C 12,8 C 13,3 C 78 % 1009,4 hPa 0,0 l/m 0 min 0 min 5 W/m 12,9 km/h (3 Bft) 97,83 %
07.06.2019 21:50 14,8 C 12,8 C 13,3 C 78 % 1009,4 hPa 0,0 l/m 0 min 0 min 5 W/m 9,7 km/h (2 Bft) 95,74 %
07.06.2019 21:52 14,8 C 12,8 C 13,3 C 78 % 1009,4 hPa 0,0 l/m 0 min 0 min 1 W/m 12,9 km/h (3 Bft) 97,87 %
07.06.2019 21:54 14,8 C 12,8 C 13,3 C 77 % 1009,5 hPa 0,0 l/m 0 min 0 min 0 W/m 16,1 km/h (3 Bft) 100,00 %
07.06.2019 21:56 14,8 C 12,8 C 13,9 C 77 % 1009,4 hPa 0,0 l/m 0 min 0 min 0 W/m 16,1 km/h (3 Bft) 100,00 %
07.06.2019 21:58 14,8 C 12,8 C 13,3 C 77 % 1009,5 hPa 0,0 l/m 0 min 0 min 0 W/m 9,7 km/h (2 Bft) 97,83 %
07.06.2019 22:00 14,8 C 12,8 C 13,9 C 77 % 1009,5 hPa 0,0 l/m 0 min 0 min 0 W/m 16,1 km/h (3 Bft) 97,87 %
07.06.2019 22:02 14,8 C 13,3 C 13,9 C 77 % 1009,5 hPa 0,0 l/m 0 min 0 min 0 W/m 16,1 km/h (3 Bft) 95,74 %
07.06.2019 22:04 14,8 C 13,9 C 13,9 C 76 % 1009,5 hPa 0,0 l/m 0 min 0 min 0 W/m 16,1 km/h (3 Bft) 97,87 %
07.06.2019 22:06 14,8 C 13,9 C 13,9 C 76 % 1009,5 hPa 0,0 l/m 0 min 0 min 0 W/m 22,5 km/h (4 Bft) 97,87 %
07.06.2019 22:08 14,8 C 13,9 C 13,9 C 76 % 1009,4 hPa 0,0 l/m 0 min 0 min 0 W/m 12,9 km/h (3 Bft) 95,74 %
07.06.2019 22:10 14,8 C 13,9 C 13,9 C 76 % 1009,3 hPa 0,0 l/m 0 min 0 min 0 W/m 9,7 km/h (2 Bft) 97,83 %
07.06.2019 22:12 14,8 C 13,9 C 13,9 C 76 % 1009,3 hPa 0,0 l/m 0 min 0 min 0 W/m 9,7 km/h (2 Bft) 97,87 %
07.06.2019 22:14 14,8 C 13,9 C 13,9 C 76 % 1009,4 hPa 0,0 l/m 0 min 0 min 0 W/m 16,1 km/h (3 Bft) 97,87 %
07.06.2019 22:16 14,8 C 13,9 C 13,9 C 75 % 1009,5 hPa 0,0 l/m 0 min 0 min 0 W/m 9,7 km/h (2 Bft) 97,87 %
07.06.2019 22:18 14,8 C 13,9 C 13,9 C 75 % 1009,5 hPa 0,0 l/m 0 min 0 min 0 W/m 9,7 km/h (2 Bft) 97,87 %
07.06.2019 22:20 14,8 C 13,9 C 13,9 C 75 % 1009,5 hPa 0,0 l/m 0 min 0 min 0 W/m 9,7 km/h (2 Bft) 97,87 %
07.06.2019 22:22 14,7 C 13,9 C 13,9 C 75 % 1009,5 hPa 0,0 l/m 0 min 0 min 0 W/m 19,3 km/h (3 Bft) 95,65 %
07.06.2019 22:24 14,8 C 13,9 C 13,9 C 75 % 1009,6 hPa 0,0 l/m 0 min 0 min 0 W/m 12,9 km/h (3 Bft) 95,74 %
07.06.2019 22:26 14,8 C 13,9 C 13,9 C 75 % 1009,7 hPa 0,0 l/m 0 min 0 min 0 W/m 9,7 km/h (2 Bft) 97,87 %
07.06.2019 22:28 14,8 C 13,9 C 13,3 C 75 % 1009,7 hPa 0,0 l/m 0 min 0 min 0 W/m 12,9 km/h (3 Bft) 97,87 %
07.06.2019 22:30 14,8 C 13,9 C 13,3 C 75 % 1009,7 hPa 0,0 l/m 0 min 0 min 0 W/m 22,5 km/h (4 Bft) 95,74 %
07.06.2019 22:32 14,7 C 13,9 C 13,3 C 75 % 1009,8 hPa 0,0 l/m 0 min 0 min 0 W/m 12,9 km/h (3 Bft) 95,74 %
07.06.2019 22:34 14,7 C 13,9 C 13,3 C 75 % 1009,8 hPa 0,0 l/m 0 min 0 min 0 W/m 12,9 km/h (3 Bft) 91,30 %
07.06.2019 22:36 14,7 C 13,9 C 13,3 C 75 % 1009,8 hPa 0,0 l/m 0 min 0 min 0 W/m 16,1 km/h (3 Bft) 95,74 %
07.06.2019 22:38 14,8 C 13,9 C 13,3 C 75 % 1009,8 hPa 0,0 l/m 0 min 0 min 0 W/m 16,1 km/h (3 Bft) 95,74 %
07.06.2019 22:40 14,7 C 13,9 C 13,3 C 75 % 1009,7 hPa 0,0 l/m 0 min 0 min 0 W/m 9,7 km/h (2 Bft) 91,49 %
07.06.2019 22:42 14,7 C 13,9 C 13,3 C 75 % 1009,6 hPa 0,0 l/m 0 min 0 min 0 W/m 12,9 km/h (3 Bft) 95,74 %
07.06.2019 22:44 14,7 C 13,9 C 13,3 C 75 % 1009,7 hPa 0,0 l/m 0 min 0 min 0 W/m 22,5 km/h (4 Bft) 93,62 %
07.06.2019 22:46 14,7 C 13,9 C 13,3 C 75 % 1009,6 hPa 0,0 l/m 0 min 0 min 0 W/m 22,5 km/h (4 Bft) 93,48 %
07.06.2019 22:48 14,7 C 13,9 C 13,3 C 74 % 1009,5 hPa 0,0 l/m 0 min 0 min 0 W/m 9,7 km/h (2 Bft) 93,62 %
07.06.2019 22:50 14,7 C 13,9 C 13,9 C 74 % 1009,5 hPa 0,0 l/m 0 min 0 min 0 W/m 19,3 km/h (3 Bft) 91,49 %
07.06.2019 22:52 14,7 C 13,9 C 13,3 C 74 % 1009,5 hPa 0,0 l/m 0 min 0 min 0 W/m 12,9 km/h (3 Bft) 91,49 %
07.06.2019 22:54 14,7 C 13,9 C 13,3 C 74 % 1009,5 hPa 0,0 l/m 0 min 0 min 0 W/m 16,1 km/h (3 Bft) 93,62 %
07.06.2019 22:56 14,7 C 13,9 C 13,3 C 74 % 1009,5 hPa 0,0 l/m 0 min 0 min 0 W/m 16,1 km/h (3 Bft) 95,74 %
07.06.2019 22:58 14,7 C 13,9 C 13,3 C 74 % 1009,5 hPa 0,0 l/m 0 min 0 min 0 W/m 9,7 km/h (2 Bft) 95,65 %
07.06.2019 23:00 14,7 C 13,9 C 13,3 C 74 % 1009,6 hPa 0,0 l/m 0 min 0 min 0 W/m 16,1 km/h (3 Bft) 95,74 %
07.06.2019 23:02 14,7 C 13,9 C 13,3 C 74 % 1009,5 hPa 0,0 l/m 0 min 0 min 0 W/m 9,7 km/h (2 Bft) 93,62 %
07.06.2019 23:04 14,7 C 13,9 C 13,3 C 74 % 1009,7 hPa 0,0 l/m 0 min 0 min 0 W/m 9,7 km/h (2 Bft) 95,74 %
07.06.2019 23:06 14,7 C 13,9 C 13,3 C 74 % 1009,6 hPa 0,0 l/m 0 min 0 min 0 W/m 12,9 km/h (3 Bft) 93,62 %
07.06.2019 23:08 14,7 C 13,9 C 13,3 C 74 % 1009,6 hPa 0,0 l/m 0 min 0 min 0 W/m 12,9 km/h (3 Bft) 95,65 %
07.06.2019 23:10 14,7 C 13,9 C 13,3 C 74 % 1009,6 hPa 0,0 l/m 0 min 0 min 0 W/m 16,1 km/h (3 Bft) 95,74 %
07.06.2019 23:12 14,7 C 13,9 C 13,3 C 74 % 1009,6 hPa 0,0 l/m 0 min 0 min 0 W/m 16,1 km/h (3 Bft) 93,62 %
07.06.2019 23:14 14,7 C 13,9 C 13,3 C 74 % 1009,6 hPa 0,0 l/m 0 min 0 min 0 W/m 16,1 km/h (3 Bft) 95,74 %
07.06.2019 23:16 14,7 C 13,3 C 13,3 C 74 % 1009,5 hPa 0,0 l/m 0 min 0 min 0 W/m 16,1 km/h (3 Bft) 95,74 %
07.06.2019 23:18 14,7 C 13,3 C 13,3 C 74 % 1009,5 hPa 0,0 l/m 0 min 0 min 0 W/m 9,7 km/h (2 Bft) 97,87 %
07.06.2019 23:20 14,7 C 13,3 C 13,3 C 74 % 1009,5 hPa 0,0 l/m 0 min 0 min 0 W/m 9,7 km/h (2 Bft) 95,65 %
07.06.2019 23:22 14,6 C 13,3 C 13,3 C 75 % 1009,7 hPa 0,0 l/m 0 min 0 min 0 W/m 6,4 km/h (2 Bft) 95,74 %
07.06.2019 23:24 14,6 C 13,3 C 12,8 C 75 % 1009,7 hPa 0,0 l/m 0 min 0 min 0 W/m 9,7 km/h (2 Bft) 95,74 %
07.06.2019 23:26 14,6 C 13,3 C 13,3 C 75 % 1009,7 hPa 0,0 l/m 0 min 0 min 0 W/m 12,9 km/h (3 Bft) 93,62 %
07.06.2019 23:28 14,6 C 13,3 C 13,3 C 75 % 1009,7 hPa 0,0 l/m 0 min 0 min 0 W/m 9,7 km/h (2 Bft) 93,62 %
07.06.2019 23:30 14,6 C 13,3 C 12,8 C 75 % 1009,8 hPa 0,0 l/m 0 min 0 min 0 W/m 12,9 km/h (3 Bft) 93,62 %
07.06.2019 23:32 14,6 C 13,9 C 13,3 C 75 % 1009,9 hPa 0,0 l/m 0 min 0 min 0 W/m 9,7 km/h (2 Bft) 93,48 %
07.06.2019 23:34 14,5 C 13,9 C 13,3 C 75 % 1009,8 hPa 0,0 l/m 0 min 0 min 0 W/m 12,9 km/h (3 Bft) 97,87 %
07.06.2019 23:36 14,5 C 13,9 C 13,3 C 75 % 1009,9 hPa 0,0 l/m 0 min 0 min 0 W/m 9,7 km/h (2 Bft) 100,00 %
07.06.2019 23:38 14,5 C 13,9 C 13,3 C 75 % 1009,8 hPa 0,0 l/m 0 min 0 min 0 W/m 9,7 km/h (2 Bft) 97,87 %
07.06.2019 23:40 14,5 C 13,9 C 13,3 C 75 % 1009,8 hPa 0,0 l/m 0 min 0 min 0 W/m 19,3 km/h (3 Bft) 97,87 %
07.06.2019 23:42 14,5 C 13,9 C 13,3 C 75 % 1009,8 hPa 0,0 l/m 0 min 0 min 0 W/m 19,3 km/h (3 Bft) 97,87 %
07.06.2019 23:44 14,5 C 13,9 C 13,3 C 75 % 1009,9 hPa 0,0 l/m 0 min 0 min 0 W/m 25,7 km/h (4 Bft) 100,00 %
07.06.2019 23:46 14,5 C 13,9 C 13,3 C 75 % 1010,1 hPa 0,0 l/m 0 min 0 min 0 W/m 19,3 km/h (3 Bft) 100,00 %
07.06.2019 23:48 14,5 C 13,9 C 13,3 C 75 % 1010,0 hPa 0,0 l/m 0 min 0 min 0 W/m 16,1 km/h (3 Bft) 95,74 %
07.06.2019 23:50 14,5 C 13,9 C 13,3 C 75 % 1010,0 hPa 0,0 l/m 0 min 0 min 0 W/m 22,5 km/h (4 Bft) 97,87 %
07.06.2019 23:52 14,6 C 13,9 C 13,3 C 75 % 1010,0 hPa 0,0 l/m 0 min 0 min 0 W/m 16,1 km/h (3 Bft) 100,00 %
07.06.2019 23:54 14,6 C 13,9 C 13,9 C 75 % 1010,1 hPa 0,0 l/m 0 min 0 min 0 W/m 19,3 km/h (3 Bft) 100,00 %
07.06.2019 23:56 14,6 C 14,4 C 13,9 C 74 % 1010,0 hPa 0,0 l/m 0 min 0 min 0 W/m 25,7 km/h (4 Bft) 97,83 %
07.06.2019 23:58 14,6 C 14,4 C 13,9 C 74 % 1010,1 hPa 0,0 l/m 0 min 0 min 0 W/m 22,5 km/h (4 Bft) 97,87 %
_ Min-Zeit 05:58 05:22 05:22 14:52 15:54 - - - - 00:00 05:16
Minimum _ 10,6 C 8,9 C 8,9 C 51 % 1006,0 hPa - - - - 0,0 km/h (0 Bft) 90,91 %
_ Max-Zeit 14:58 14:18 14:18 06:14 00:00 17:40 12:07 18:07 14:04 13:14 00:04
Maximum _ 25,4 C 28,9 C 33,3 C 93 % 1015,3 hPa 0,2 l/m 3 min 3 min 1117 W/m 51,5 km/h
O (7 Bft)
100,00 %
Durchschnitt _ 16,6 C 16,8 C 17,1 C 75 % 1010,8 hPa #0,8 l/m #6:18 h #1:38 h 359 W/m 16,7 km/h (3 Bft) 97,42 %
© 2019 W. Hausmann